GFSGL_700_spd_057.txt.gz
Wind_Speed
27 30 31 26 29 28 24 25 19 17 20 23 24 23 25 26 28 27 27 27 28 34 27 39 29 37 37 45 39 43 42 39 42 42 38 38 37 34 32 36 41 43 42
29 30 31 30 34 37 32 22 13 17 19 20 22 24 26 28 29 30 29 31 32 29 36 34 35 36 39 43 44 41 38 38 38 41 39 37 38 35 35 37 41 43 44
34 23 21 22 19 17 15 18 18 17 19 22 24 27 29 31 32 33 30 27 31 34 32 36 39 38 37 41 37 37 35 35 35 39 41 39 39 38 41 42 43 44 43
23 22 25 21 17 16 16 20 19 20 23 26 28 31 33 33 32 30 29 34 33 36 38 33 37 35 34 35 34 34 33 34 35 38 41 42 42 42 44 46 46 47 47
25 23 23 17 17 17 17 18 21 24 27 30 32 33 34 33 32 32 33 33 33 35 30 30 30 30 31 33 35 34 35 37 38 40 43 45 46 46 47 47 47 48 50
25 21 19 18 19 20 21 24 26 29 31 31 33 32 32 32 32 32 33 33 30 29 28 29 29 31 32 34 37 39 41 41 42 44 46 49 50 50 48 47 46 46 48
26 25 24 23 25 25 26 29 30 29 31 32 31 31 32 32 31 32 31 30 28 26 27 29 30 32 36 38 39 40 41 42 44 48 52 55 56 55 51 47 48 47 46
28 28 28 28 29 30 30 26 29 30 30 30 31 32 32 31 31 30 28 27 27 27 29 32 34 34 37 39 40 42 43 45 48 51 54 57 58 57 53 46 47 47 46
30 30 31 33 33 30 28 30 31 31 30 30 31 34 32 30 27 27 26 27 28 30 31 33 34 35 36 39 43 46 48 49 52 54 56 56 56 55 52 47 46 42 41
30 33 33 29 26 28 30 30 30 30 30 31 32 33 30 28 26 26 27 28 30 31 32 32 34 36 38 41 45 47 50 52 54 54 54 53 51 48 46 42 44 45 43
27 26 26 25 28 29 30 30 30 30 31 32 32 31 31 30 28 28 28 30 32 31 31 32 34 37 40 43 45 48 50 52 54 54 53 51 48 45 40 36 37 35 40
26 25 26 27 29 30 29 31 31 32 32 31 33 33 32 30 28 28 29 31 31 32 32 35 38 41 43 44 45 48 50 51 51 51 49 47 45 41 35 33 33 41 27
27 27 28 31 31 31 32 34 34 33 31 30 32 31 32 29 29 28 29 30 31 32 35 37 40 42 43 44 46 48 50 50 50 48 47 46 43 35 30 27 26 29 37
30 31 32 33 34 35 35 35 34 33 34 34 32 31 31 29 28 29 29 29 31 33 35 37 40 42 44 46 47 48 48 48 47 46 44 43 39 29 24 21 19 17 17
35 36 37 38 39 39 37 37 37 37 35 33 30 28 25 25 27 29 29 30 33 34 35 38 40 43 45 47 48 49 48 45 43 41 42 40 33 24 20 18 17 18 24
40 40 41 41 41 39 38 37 37 37 33 29 26 28 25 25 27 29 31 34 35 37 38 40 42 44 47 49 49 48 47 43 40 39 39 35 28 18 17 19 18 16 18
44 44 43 43 41 40 37 36 35 29 26 29 29 24 24 25 28 31 33 35 37 39 41 43 43 45 47 48 48 47 44 39 37 36 35 29 23 21 19 16 15 18 17
49 47 44 44 43 40 37 36 33 32 31 30 28 27 24 24 30 35 37 38 39 41 42 43 44 44 46 47 46 43 40 36 34 32 29 22 19 21 18 14 16 15 18
47 42 40 40 42 41 35 29 30 29 26 26 26 26 26 29 33 36 38 40 42 43 43 43 43 44 45 45 43 40 37 34 32 30 25 20 17 17 23 13 19 21 19
44 46 44 33 27 27 27 27 27 25 26 27 28 30 32 34 37 39 41 42 44 44 44 44 44 45 45 43 41 37 35 31 29 28 24 21 19 14 12 15 16 18 18
35 29 26 27 27 26 25 25 25 27 28 29 31 33 35 38 40 42 43 44 44 44 43 43 44 44 43 41 38 35 33 30 28 26 24 21 19 19 18 15 16 17 17
25 26 25 23 23 24 25 26 28 30 32 34 35 38 40 41 43 44 44 44 43 43 42 43 42 42 40 38 36 34 32 28 26 26 24 22 22 20 20 21 17 16 15
19 20 21 22 23 26 28 29 30 33 35 37 38 41 43 44 44 44 43 43 42 42 42 41 40 39 37 36 34 33 30 28 26 25 24 23 22 25 23 19 18 16 17
19 21 23 26 28 30 32 34 36 38 40 41 42 44 44 43 43 43 42 42 42 41 39 38 38 36 35 33 31 30 28 27 27 25 23 22 21 23 27 24 20 18 18
23 26 28 31 33 35 37 39 40 42 43 44 44 44 43 42 42 42 41 41 40 37 36 35 34 34 32 30 29 27 26 25 24 22 20 20 19 20 22 26 24 21 20
29 31 34 36 38 40 41 42 43 44 45 45 44 44 43 42 41 40 40 38 36 35 33 32 31 30 29 27 25 24 23 22 20 20 18 17 17 17 19 21 23 22 20

GFSGL_700_spd_060.txt.gz
Wind_Speed
23 23 25 26 28 32 32 35 33 35 26 25 26 22 26 23 22 26 28 29 29 30 27 32 34 35 34 36 37 42 39 44 49 48 43 39 38 37 36 38 40 42 43
35 33 23 24 26 18 32 31 37 30 22 27 25 24 22 22 25 28 30 30 32 32 32 29 31 38 41 38 39 41 41 42 46 47 43 39 38 36 38 40 41 42 44
39 32 26 28 18 23 22 10 8 13 22 23 23 22 24 26 28 31 33 33 33 36 31 33 42 39 37 43 42 39 40 42 41 43 44 42 40 37 38 40 42 44 46
33 30 22 17 13 21 21 21 16 17 18 19 22 24 27 30 33 35 36 32 33 28 33 35 34 41 43 37 41 38 37 38 39 40 41 42 42 41 42 44 46 46 49
25 23 21 19 18 18 20 21 20 19 20 21 25 28 31 34 35 35 32 32 28 35 33 35 35 35 33 35 35 34 35 36 38 40 42 44 44 45 46 48 51 51 53
24 24 25 23 20 19 19 21 18 20 24 26 29 32 33 34 33 31 31 31 32 32 32 32 32 32 31 32 33 35 35 37 39 42 45 47 48 50 52 55 57 57 57
25 25 26 24 22 22 22 22 22 24 27 31 30 32 32 32 31 30 30 31 31 30 29 28 31 31 31 31 33 34 35 37 42 46 49 50 52 54 57 59 60 60 59
28 27 24 26 25 26 26 27 29 30 31 31 32 32 30 29 29 29 29 29 29 29 29 30 30 32 32 34 34 35 36 38 42 44 47 49 52 54 56 57 58 58 54
26 24 26 28 30 30 30 30 32 30 30 30 30 29 29 29 29 29 28 29 30 30 30 30 31 33 33 34 35 38 39 41 43 45 48 50 51 53 54 55 53 52 50
30 29 30 30 29 32 32 29 28 29 30 30 29 29 30 29 29 29 30 30 31 31 31 31 31 32 32 34 37 40 42 43 45 47 48 49 50 51 50 50 49 46 44
34 33 35 34 33 31 27 28 29 31 31 32 32 32 32 31 30 30 30 31 31 30 30 30 31 31 33 36 38 40 42 45 47 49 50 51 51 50 49 48 47 43 39
33 35 35 33 29 28 29 31 31 32 33 33 33 34 33 31 31 32 33 32 31 30 29 29 30 32 35 36 37 39 42 44 47 50 52 52 52 51 48 46 42 40 34
27 28 29 29 31 33 33 33 34 34 34 35 35 34 33 32 32 32 32 31 29 27 27 30 32 35 36 37 39 41 44 46 49 51 52 52 51 50 47 45 40 32 29
28 30 32 34 35 36 36 36 36 37 37 37 36 34 33 34 33 32 30 27 27 32 31 33 35 36 39 41 43 44 46 48 49 51 51 50 49 47 45 41 32 23 24
32 35 37 38 39 39 39 39 39 38 38 37 36 35 35 32 30 29 32 36 32 32 34 35 37 40 43 43 44 46 47 47 48 49 49 47 45 44 41 32 20 19 18
36 39 40 41 42 42 42 42 41 39 38 37 36 34 33 30 31 35 34 32 34 33 35 38 41 44 44 45 47 48 47 47 48 47 45 43 42 40 36 19 17 17 18
39 41 43 44 44 44 45 45 43 41 36 35 36 32 33 37 38 39 37 34 33 34 38 42 44 45 46 48 48 48 47 47 47 46 43 40 38 35 27 19 19 16 10
40 42 44 44 44 45 44 42 42 44 43 37 38 38 39 40 37 35 35 35 35 39 42 44 46 47 47 48 48 47 47 46 45 43 40 37 33 30 22 20 19 18 14
42 44 45 44 44 44 46 46 40 35 35 34 34 35 34 34 34 36 37 38 41 42 44 46 47 47 47 47 46 47 46 45 43 40 38 34 30 27 23 19 18 22 21
39 39 39 39 38 37 36 34 33 33 32 32 33 34 35 35 36 38 41 42 44 46 47 47 46 46 46 46 46 46 45 43 40 38 35 32 28 25 23 19 16 18 17
33 34 34 34 32 30 29 28 28 29 31 32 33 35 37 38 39 41 42 44 45 46 46 46 46 45 45 46 45 45 43 40 38 36 33 29 26 24 23 22 20 18 19
29 27 24 23 23 24 24 25 27 29 31 34 35 37 39 41 42 44 45 46 47 47 46 46 45 45 46 45 44 42 40 38 36 33 30 27 26 25 21 22 21 21 20
16 18 19 20 21 23 25 28 31 33 35 37 39 41 42 44 45 47 48 48 47 46 46 45 45 45 43 42 40 39 38 35 33 30 27 26 24 24 23 21 22 21 21
16 17 19 22 24 27 30 33 36 38 40 41 43 44 46 47 48 48 48 48 47 46 45 44 44 42 40 38 36 35 34 31 30 28 27 25 22 23 23 20 26 23 21
18 21 24 27 30 33 36 38 40 42 43 45 46 48 48 49 49 49 48 47 46 44 43 42 40 39 37 35 33 31 30 28 27 26 24 21 19 20 21 20 21 27 23
25 28 31 34 36 38 40 42 44 46 47 48 49 49 49 48 47 46 45 44 43 42 40 38 36 34 33 31 30 28 27 26 24 24 22 19 17 17 18 18 19 23 26

GFSGL_700_spd_063.txt.gz
Wind_Speed
21 24 32 32 32 32 32 32 31 29 26 29 33 31 26 30 31 28 27 28 29 30 32 33 34 36 38 43 44 38 41 43 46 46 47 45 42 42 39 42 43 45 46
32 31 31 38 40 34 39 32 36 36 34 42 41 29 32 29 27 25 28 31 33 33 36 33 37 39 37 36 41 39 43 40 44 52 45 43 43 41 40 42 42 45 46
36 38 36 31 33 20 12 35 15 13 29 22 26 30 28 26 24 30 29 32 35 36 37 40 36 40 36 38 45 44 42 45 47 46 45 42 43 42 42 42 42 44 46
30 29 29 29 17 16 19 22 26 20 19 25 25 26 26 27 30 32 33 35 36 38 41 37 38 37 38 45 42 42 47 40 40 42 43 43 43 41 42 45 47 47 48
22 24 22 21 22 20 18 20 22 27 24 23 24 26 28 29 30 33 36 39 39 37 37 39 39 39 43 39 40 40 39 39 39 41 41 42 42 43 44 46 49 50 51
20 22 21 21 21 19 21 21 21 23 24 25 28 28 28 30 33 36 39 38 38 38 37 37 38 39 38 39 40 39 38 39 40 41 40 41 43 45 47 49 51 54 60
20 19 22 23 23 22 21 22 23 24 23 25 28 29 30 34 37 38 37 37 36 36 37 38 39 39 39 38 38 38 39 38 39 39 41 42 46 46 49 51 53 55 58
22 19 22 26 25 24 25 26 27 27 28 29 31 33 35 36 35 34 34 35 36 37 39 40 39 38 37 37 37 36 35 36 37 40 42 43 45 46 49 52 54 57 59
26 22 23 22 23 25 27 28 30 30 32 32 34 33 32 34 35 35 35 36 38 39 39 38 38 38 38 36 35 35 34 35 37 38 39 40 42 45 47 51 54 57 58
27 29 26 25 26 26 26 30 32 34 35 38 34 33 34 35 35 35 36 38 38 37 38 38 38 38 37 37 36 35 35 36 37 38 38 40 42 44 46 49 52 54 55
31 30 30 28 29 29 32 32 32 34 35 33 33 33 34 34 36 36 37 36 37 38 38 38 37 36 35 36 35 35 37 40 40 42 44 45 47 48 48 51 52 53 52
31 32 31 29 31 34 34 31 31 32 32 33 33 34 34 35 35 36 36 37 38 38 38 36 36 36 35 34 36 38 41 41 44 46 47 49 50 50 50 51 51 50 49
31 31 30 31 32 32 31 31 32 33 34 35 35 36 36 36 36 37 37 38 38 37 36 36 34 31 37 40 39 39 41 43 46 48 49 50 51 51 51 51 49 48 46
29 29 29 29 30 31 32 33 35 37 38 39 39 39 38 38 38 38 39 38 36 35 35 36 40 44 37 40 38 41 43 46 48 49 50 51 51 51 51 50 47 45 43
29 29 30 30 31 32 34 36 38 39 40 41 41 40 40 40 40 41 39 37 37 41 45 46 42 38 39 38 41 44 45 47 48 49 50 50 50 50 49 46 43 40 34
28 29 31 32 34 36 37 39 40 41 42 43 43 43 43 43 41 39 43 46 45 43 44 43 41 40 39 43 44 45 47 49 49 49 49 49 49 49 47 42 39 34 26
30 30 31 34 36 38 40 41 42 44 45 45 45 45 47 50 45 42 42 43 42 44 43 42 42 43 44 46 48 49 49 48 48 48 48 48 48 47 43 38 34 29 23
34 36 34 33 33 35 37 38 40 40 42 43 44 43 39 38 40 40 41 44 46 45 45 45 46 46 48 49 50 50 48 48 48 48 47 47 46 44 39 35 30 26 23
35 34 31 33 33 32 32 33 35 37 37 38 39 39 38 37 38 40 42 43 43 44 45 46 47 48 49 50 50 49 49 47 47 47 46 45 43 40 36 32 28 24 22
33 33 31 30 29 30 32 34 36 37 37 36 35 34 35 35 36 37 39 42 44 44 45 47 49 50 50 50 50 49 47 46 46 46 45 42 40 37 34 29 25 23 19
31 29 28 28 30 32 33 33 32 31 30 30 31 32 34 35 38 41 43 45 46 48 49 50 50 50 50 49 48 47 46 45 45 43 41 39 37 33 31 28 24 23 22
24 27 28 30 30 28 26 25 25 26 28 30 32 35 38 40 43 45 47 48 50 50 50 51 51 50 50 48 47 46 45 43 42 40 38 36 33 30 28 25 24 23 23
25 24 23 22 22 23 23 24 26 28 31 34 37 39 42 44 47 49 51 52 52 53 53 53 52 50 48 47 45 44 42 39 38 36 35 32 29 27 25 24 22 21 22
16 17 18 20 21 23 25 28 31 34 37 39 42 45 47 49 51 52 52 53 54 53 53 51 49 47 45 43 41 40 38 36 35 33 31 29 25 24 23 23 21 22 23
17 19 21 23 26 29 32 35 38 41 43 45 46 48 49 50 51 52 52 52 52 51 49 47 45 43 41 38 36 34 33 31 30 30 28 25 22 20 20 20 20 22 21
23 26 29 31 34 37 38 40 42 43 44 45 45 45 45 46 46 46 46 45 44 42 41 39 38 36 35 33 31 30 29 28 27 26 25 22 20 18 19 18 18 19 20

GFSGL_700_spd_066.txt.gz
Wind_Speed
20 20 23 25 27 28 28 28 30 29 30 33 38 37 35 40 39 37 40 38 38 35 36 32 32 35 35 37 36 43 40 44 43 42 44 44 39 43 40 39 39 41 42
31 27 23 22 25 32 34 35 37 39 39 40 39 38 36 42 35 37 37 24 28 33 34 34 36 36 40 37 44 37 47 50 42 48 47 42 43 39 39 39 40 41 42
27 28 29 30 30 33 25 21 36 40 46 38 41 44 43 41 35 34 30 31 31 32 34 35 35 39 42 36 46 42 48 42 45 46 43 48 40 38 40 42 43 42 42
16 20 22 23 23 22 23 20 17 21 37 24 22 25 34 25 32 36 34 30 31 33 35 38 39 41 43 42 41 43 38 44 39 43 46 43 41 40 43 45 43 43 45
11 17 18 20 20 20 25 24 24 23 26 31 26 23 24 34 33 35 33 33 34 37 39 39 42 41 46 41 44 37 44 43 44 44 42 41 42 43 44 44 46 47 47
13 12 12 16 19 20 23 23 24 24 27 29 28 27 27 29 31 33 36 35 37 39 42 43 43 40 42 41 41 42 43 42 44 42 42 43 42 43 44 44 46 49 49
18 17 15 16 16 18 21 23 22 24 25 26 30 30 32 34 35 37 37 38 39 42 40 41 43 41 42 42 42 43 43 43 43 43 42 42 42 42 43 46 43 45 48
21 22 20 21 20 17 22 22 24 25 26 28 29 30 30 33 36 36 38 40 40 39 42 43 41 42 42 43 44 44 44 44 44 43 42 41 40 42 43 43 45 49 50
25 23 23 23 25 22 20 22 24 27 28 29 32 34 34 36 37 39 40 38 39 41 42 41 42 42 43 45 45 44 44 43 43 40 41 41 41 42 43 45 47 51 54
28 25 25 29 29 25 24 25 26 28 30 33 36 37 39 39 40 40 38 38 39 40 41 42 44 45 46 45 44 43 42 40 39 40 41 40 41 41 44 46 48 51 53
28 30 28 31 30 28 29 32 33 34 32 32 35 38 40 41 41 39 39 40 41 42 43 44 45 46 46 45 44 44 40 39 44 39 38 41 42 42 44 45 48 50 51
32 30 31 31 33 33 33 33 34 34 33 34 35 38 40 40 39 39 40 41 42 43 44 45 46 46 46 45 44 42 45 42 41 45 49 43 42 43 45 46 47 48 49
29 30 32 33 34 34 27 27 26 30 32 35 39 39 38 38 39 41 43 43 43 44 45 46 46 45 44 45 49 49 46 50 52 49 43 44 46 46 47 47 47 47 47
29 30 32 33 32 30 31 30 29 33 37 37 38 38 39 41 42 43 43 44 45 46 47 46 47 49 53 54 53 52 52 53 48 47 46 47 47 47 46 46 46 47 47
25 26 28 28 28 28 28 28 32 35 36 36 37 39 41 41 41 43 45 47 48 48 50 51 50 48 48 48 49 51 50 49 48 48 48 47 47 46 45 45 46 46 46
26 22 23 25 24 24 25 27 29 31 33 36 38 40 42 43 44 44 45 48 49 46 41 41 43 45 46 48 49 48 48 48 47 47 47 47 46 45 44 43 44 44 42
27 22 22 24 25 25 28 28 27 28 28 29 32 35 38 39 41 43 42 38 39 39 39 41 43 44 46 47 47 47 47 47 47 47 47 46 46 44 43 43 43 42 38
28 30 27 21 23 23 20 21 24 25 26 27 29 31 34 36 36 38 40 39 38 40 41 43 44 44 45 46 47 48 48 47 47 47 46 45 43 43 43 43 42 39 36
27 28 25 27 26 26 27 26 25 25 26 28 31 34 36 37 38 37 37 37 39 40 41 42 44 45 46 47 48 49 48 47 46 46 44 43 43 43 42 41 39 36 33
31 25 27 25 25 25 25 24 25 27 31 34 35 35 35 35 34 34 35 36 38 40 42 44 46 48 49 50 50 49 49 47 46 45 44 44 43 42 40 39 36 33 29
24 24 24 24 23 24 25 27 29 31 32 31 31 30 31 32 33 35 37 39 42 44 46 48 50 51 51 52 52 51 50 48 46 45 43 41 40 38 37 35 33 30 27
21 21 22 23 25 26 26 26 26 25 24 25 27 29 31 33 36 39 42 45 47 49 51 52 53 53 53 52 51 49 47 44 42 41 39 38 37 35 34 32 29 27 24
19 20 21 21 21 21 21 21 22 23 25 27 29 32 35 39 42 45 47 49 50 51 52 53 53 52 51 49 48 46 43 40 38 37 36 34 32 30 29 28 26 24 22
15 15 16 17 18 19 21 23 25 28 31 34 37 40 42 43 45 46 47 48 48 49 49 49 49 47 45 42 39 38 36 34 33 32 32 29 27 25 25 24 23 21 20
14 15 17 20 22 25 27 30 33 35 37 38 39 40 41 42 42 42 42 42 42 42 41 41 40 38 36 33 31 30 29 28 28 27 27 26 23 22 21 21 20 18 18
21 24 26 28 29 31 32 34 35 36 36 36 36 36 36 36 36 37 37 36 36 35 34 33 31 30 29 27 26 25 24 24 23 24 23 22 20 18 18 18 17 16 16

GFSGL_700_spd_069.txt.gz
Wind_Speed
17 16 17 17 19 20 20 21 21 24 25 30 32 36 38 39 42 45 47 43 44 40 40 39 37 24 35 34 35 36 37 38 37 41 37 44 43 40 45 40 41 42 41
23 25 24 17 18 22 24 21 25 27 29 33 34 37 39 42 44 46 46 44 46 51 45 36 28 28 35 36 36 39 38 34 35 43 44 45 41 44 42 42 41 40 40
24 25 27 27 30 28 28 27 30 26 34 40 44 44 41 41 42 49 50 42 46 38 33 27 26 33 36 37 39 37 38 45 42 44 44 40 44 47 43 44 42 41 42
20 19 20 21 22 24 26 31 37 31 29 28 35 49 45 38 44 52 49 43 32 31 29 36 34 33 35 33 39 34 43 45 47 43 44 44 49 45 45 43 41 43 41
12 13 13 15 16 19 23 28 33 39 33 26 26 35 38 33 33 30 35 30 35 35 35 34 36 37 38 37 37 45 41 43 46 43 43 47 46 45 45 44 45 45 43
14 11 9 7 12 17 19 22 24 29 27 27 23 23 30 35 32 28 29 36 36 36 36 37 40 40 38 38 41 43 43 44 43 43 46 46 44 44 45 45 45 45 47
19 15 16 16 16 13 15 20 22 25 27 28 27 27 31 31 33 35 35 33 35 38 43 43 43 40 37 42 43 46 44 45 45 46 46 45 44 45 45 43 44 48 50
28 22 21 19 17 17 19 18 22 25 28 29 30 31 33 36 36 36 37 39 40 42 45 42 43 40 42 45 47 46 46 46 47 47 46 46 45 44 42 45 51 52 52
30 28 25 25 22 25 25 24 22 26 29 31 32 33 34 35 34 34 36 38 40 41 43 42 40 42 45 47 46 46 46 48 48 46 44 44 44 43 48 54 51 49 52
28 30 31 29 26 29 29 28 25 28 31 32 33 33 35 38 37 38 38 40 43 43 46 44 43 43 46 45 46 47 49 48 46 45 44 45 43 50 53 49 49 52 50
31 31 33 33 31 31 33 34 31 30 33 34 34 36 36 38 40 42 43 44 43 48 47 41 42 44 44 46 48 48 47 47 46 45 42 46 54 54 50 52 54 49 46
34 35 34 34 30 34 35 36 34 35 36 38 39 38 37 37 36 38 39 44 46 38 38 40 43 44 46 47 47 48 47 46 45 48 53 56 54 51 53 53 46 45 44
38 34 31 31 32 34 37 36 37 38 40 38 37 41 32 34 38 43 45 37 34 35 40 43 45 46 46 49 51 48 48 49 50 51 50 50 53 54 49 45 43 44 43
28 26 27 30 38 36 35 36 36 30 29 27 29 34 37 39 34 32 32 36 40 42 44 44 46 49 52 52 50 46 44 44 45 46 48 50 49 46 44 44 44 44 43
24 26 32 33 33 32 30 28 27 23 24 28 35 35 35 32 33 34 38 41 43 44 46 47 45 44 43 42 42 43 43 44 45 47 46 45 45 45 45 45 44 44 43
23 24 24 24 25 25 23 22 21 20 24 26 28 31 33 36 37 39 41 41 41 41 40 40 41 42 43 42 41 42 43 44 44 44 45 45 46 46 46 44 44 44 43
24 26 27 24 22 24 23 21 18 20 24 27 28 29 29 31 32 33 33 33 34 38 40 41 42 42 40 40 41 42 43 43 44 45 46 47 48 47 46 45 44 42 41
26 24 25 24 19 19 16 18 19 20 23 25 26 26 27 27 28 31 34 36 38 39 41 41 39 39 39 40 41 43 44 45 46 47 48 48 47 47 45 43 42 41 39
25 22 23 25 24 21 22 23 24 27 28 27 25 25 26 29 32 34 36 37 38 38 37 37 37 38 40 42 44 45 47 48 49 50 49 49 47 46 44 42 41 39 37
27 27 27 27 26 27 26 25 24 23 23 24 26 29 31 32 34 34 34 34 34 35 35 37 39 42 45 46 48 50 51 52 51 51 50 47 45 43 41 40 38 37 36
22 21 20 22 22 21 22 21 22 24 26 28 29 30 29 29 29 29 30 32 34 37 40 43 46 48 50 51 52 53 52 51 49 48 46 43 41 39 38 37 36 34 33
14 15 17 17 18 21 22 23 25 25 25 25 25 25 25 26 28 31 35 38 41 43 46 47 48 49 50 49 49 49 48 47 45 43 40 38 36 34 34 32 31 30 29
13 14 15 16 18 18 18 18 18 18 19 21 23 26 29 32 36 38 40 41 43 44 44 44 44 44 44 44 44 43 41 38 36 34 33 31 30 29 28 28 27 26 25
11 11 11 12 13 14 16 18 21 23 26 28 30 32 34 35 37 38 38 38 39 39 39 39 39 39 37 36 34 33 31 29 27 26 25 24 23 23 23 23 23 23 21
12 14 15 17 19 22 23 25 26 27 29 30 31 32 32 32 32 33 33 34 34 34 34 33 33 31 29 28 27 25 24 23 22 21 20 20 19 19 20 20 19 18 18
19 19 20 21 22 23 24 25 26 26 26 26 26 27 27 29 29 29 29 29 28 28 28 28 27 27 26 24 23 22 21 20 20 19 18 18 17 16 16 16 16 15 14

GFSGL_700_spd_072.txt.gz
Wind_Speed
17 16 17 18 18 18 16 16 17 19 18 21 23 26 29 34 37 40 42 44 48 47 49 49 49 46 43 42 41 32 32 36 38 39 35 39 39 39 40 43 46 44 44
23 22 21 19 21 23 23 21 21 21 23 25 27 29 30 34 37 41 43 44 46 49 50 52 51 52 49 47 38 24 29 37 40 38 39 41 41 42 49 46 43 45 46
27 27 27 27 28 27 26 25 27 30 30 31 35 34 35 39 43 43 46 45 49 51 55 58 56 56 63 40 24 32 37 35 38 38 36 42 46 45 45 47 44 49 45
26 27 30 30 28 30 33 33 32 33 36 36 34 32 34 40 45 50 55 52 50 47 52 53 48 46 24 34 35 36 34 32 35 36 39 45 44 48 45 43 49 48 45
24 23 23 24 24 25 29 34 37 38 40 40 39 36 34 38 44 51 47 39 41 46 40 40 38 32 31 30 35 37 36 35 38 40 45 48 45 43 43 46 49 46 45
24 22 20 23 22 23 24 27 33 37 40 41 45 45 41 37 31 37 38 35 39 38 36 31 34 35 37 34 38 41 36 38 40 43 46 46 44 45 46 48 49 46 44
27 28 25 23 21 17 15 18 24 28 33 38 41 43 46 35 27 27 32 39 44 42 40 39 40 40 37 40 40 40 40 41 47 48 48 46 46 48 48 50 47 46 47
28 32 32 27 25 24 22 22 21 22 26 32 34 38 38 36 36 40 43 47 48 46 43 42 42 43 44 45 45 46 44 46 48 52 47 48 47 50 50 47 47 49 49
33 33 34 35 34 31 28 25 27 25 24 27 32 35 39 39 40 42 44 45 46 46 46 45 45 45 44 45 46 46 40 45 51 50 48 48 50 50 47 48 49 54 55
38 34 35 37 40 38 36 32 32 31 31 29 31 35 37 39 39 40 42 45 45 44 44 45 42 40 45 48 46 45 47 50 51 47 48 49 48 50 50 51 51 52 54
44 43 41 37 41 42 38 37 39 36 35 32 31 34 38 40 41 42 43 43 45 45 44 43 43 48 53 48 41 42 49 49 48 49 48 50 53 50 47 47 49 50 49
45 44 45 41 41 43 43 42 39 33 35 33 35 36 38 41 44 44 43 45 43 43 45 45 48 44 41 37 42 44 48 47 47 50 53 49 47 46 47 48 48 48 48
32 47 48 43 41 42 43 35 41 37 36 42 41 44 42 42 42 40 42 40 43 53 50 45 34 34 38 40 45 48 48 48 47 45 45 46 45 45 46 45 46 45 44
28 29 43 50 46 40 38 40 37 38 40 43 44 42 41 36 35 34 35 39 47 42 33 33 37 39 41 43 41 38 40 43 44 44 44 45 45 44 45 45 44 44 45
43 44 43 40 37 38 35 34 36 40 45 43 42 36 36 33 35 39 37 32 31 33 36 37 37 36 35 36 39 41 42 44 45 46 45 44 44 45 44 45 45 46 46
26 30 32 32 32 33 34 32 33 38 35 33 28 27 32 33 31 30 31 34 35 34 31 29 31 33 37 40 43 45 46 46 45 44 44 44 44 45 46 47 48 48 48
24 28 29 29 27 28 28 29 34 34 31 29 28 29 31 33 33 34 33 30 27 27 30 33 36 40 43 45 45 45 44 43 42 43 44 46 48 49 50 50 50 50 49
23 28 32 35 37 32 26 24 21 20 22 23 25 28 27 28 28 28 27 28 30 33 36 39 42 43 44 43 42 41 42 43 45 47 49 51 52 52 52 52 51 50 48
22 18 21 24 23 25 24 24 22 23 25 26 26 25 26 26 26 26 28 31 34 37 40 41 41 41 40 40 41 44 46 48 49 52 53 53 53 53 51 50 48 46 44
25 25 27 25 26 26 27 29 25 23 21 19 20 21 21 23 26 29 32 35 37 37 36 36 37 38 40 43 46 49 50 50 51 51 51 50 50 48 47 45 43 41 39
15 17 17 18 18 18 19 18 19 19 19 20 22 24 27 30 31 32 32 32 32 33 35 38 41 44 45 46 47 47 47 46 46 46 46 45 44 42 40 38 37 35 34
8 10 10 11 12 13 15 17 19 21 22 23 24 25 26 26 27 28 30 32 36 38 40 41 43 43 42 42 42 42 42 41 41 41 39 38 35 33 32 30 29 29 28
8 9 10 12 13 14 15 17 17 18 19 21 22 23 25 28 30 33 34 36 37 37 37 37 37 37 37 37 37 37 36 35 34 32 30 28 27 26 26 25 25 25 25
8 9 9 10 11 12 15 17 19 21 24 25 27 28 29 31 32 32 32 31 31 32 32 32 32 32 32 32 32 30 29 28 27 25 24 23 22 22 22 22 22 22 22
13 14 16 17 19 20 21 22 23 24 25 26 27 27 27 27 27 27 28 29 30 30 30 29 28 28 27 26 26 26 25 24 23 22 21 20 20 20 20 20 20 19 18
17 17 18 19 20 21 22 22 23 22 22 21 21 22 23 24 25 27 27 27 27 26 25 24 24 24 24 24 24 23 23 22 21 19 19 18 18 18 18 17 17 17 15

GFSGL_700_spd_075.txt.gz
Wind_Speed
23 22 20 19 17 16 15 14 14 15 16 15 18 22 24 27 36 38 39 38 40 42 45 48 46 45 45 46 47 48 47 45 50 52 45 39 30 35 40 41 42 41 43
24 21 20 20 20 20 18 19 19 19 20 22 21 23 24 24 26 33 38 39 43 46 46 47 47 48 50 51 52 53 54 55 54 44 38 44 35 43 43 40 43 45 44
28 26 26 25 25 23 23 25 26 25 26 26 27 28 28 28 29 31 33 37 41 44 45 47 49 49 50 51 55 62 63 58 58 53 35 36 43 40 46 44 43 46 46
31 30 31 30 30 29 30 31 32 32 32 32 33 33 33 33 35 36 39 41 44 47 46 50 48 48 52 58 59 60 59 42 29 34 40 36 45 43 42 46 48 48 46
35 31 29 30 30 32 34 34 35 38 40 38 37 38 39 39 40 39 40 41 47 48 48 54 53 52 48 46 42 30 29 31 36 34 42 42 45 43 45 46 51 46 46
34 32 30 30 27 28 29 31 33 36 40 44 44 43 43 45 44 43 40 39 42 46 50 51 42 44 47 43 38 34 36 40 45 37 42 44 45 50 48 48 47 47 46
29 33 32 32 30 26 28 31 33 32 33 36 39 42 44 44 44 46 43 43 38 43 40 41 40 46 48 44 44 42 40 45 46 43 40 47 50 48 45 44 49 47 46
31 32 34 37 36 33 32 30 28 25 24 23 27 32 36 39 41 42 43 46 44 42 39 41 43 47 48 49 44 45 43 45 53 48 51 59 48 37 39 47 49 47 49
36 37 38 39 41 40 38 35 35 33 31 29 27 27 29 33 37 36 38 44 49 49 48 48 50 51 52 47 47 44 43 54 50 52 51 40 39 43 43 48 48 50 50
35 38 39 39 42 45 45 42 42 40 38 37 35 33 31 30 31 35 38 40 43 44 45 47 48 50 50 49 50 47 49 54 55 52 46 44 43 42 44 49 52 50 50
36 37 43 43 44 41 40 46 51 50 45 42 43 39 36 34 32 33 36 40 42 44 46 48 49 50 49 47 48 52 55 54 46 39 39 43 44 47 48 48 51 49 47
36 35 37 40 50 51 50 56 52 53 50 49 49 43 37 36 31 36 40 43 44 45 47 48 48 45 45 48 52 55 44 39 38 41 44 43 45 47 48 49 48 46 47
41 39 36 39 41 48 44 44 45 48 51 50 44 47 43 39 38 44 43 45 44 47 48 45 45 47 50 46 41 34 36 40 41 42 41 43 46 46 47 48 48 47 47
43 40 37 30 30 37 44 43 49 42 41 37 44 48 46 41 40 47 48 46 43 42 42 42 43 44 38 35 35 37 39 40 40 41 41 43 45 47 46 46 47 46 45
38 39 35 41 41 38 34 38 35 42 43 46 54 40 35 41 46 45 44 41 39 40 36 32 29 29 31 35 37 37 37 38 40 41 43 45 46 45 44 44 44 45 46
17 21 26 31 33 43 45 42 40 44 39 36 43 39 46 44 43 41 37 35 32 30 28 29 31 34 34 33 34 35 38 39 41 43 44 43 42 42 43 45 47 49 52
16 17 17 18 20 22 23 28 35 36 36 42 45 39 39 35 39 37 29 26 26 27 29 31 31 30 30 32 35 38 40 41 41 40 40 41 44 46 49 51 53 54 55
23 17 19 20 28 31 30 31 34 32 34 37 39 43 37 28 24 23 24 25 25 26 26 26 28 31 34 37 38 39 39 40 41 42 45 48 51 53 54 54 54 54 54
25 19 15 15 17 21 22 24 22 20 21 22 21 21 21 20 20 20 21 22 23 25 27 30 33 35 36 36 37 38 39 43 46 49 50 51 51 51 51 51 51 50 49
25 20 19 17 18 22 21 21 18 16 16 16 16 16 18 18 20 21 23 25 28 30 32 33 34 34 35 37 40 43 45 46 47 47 47 47 47 47 47 46 44 43 40
14 11 11 12 13 14 13 14 13 14 14 15 16 17 18 21 23 25 27 29 29 30 31 32 35 37 40 41 41 41 42 42 42 43 43 43 42 41 39 37 35 33 31
10 9 8 8 8 9 10 11 13 14 16 17 19 20 21 22 24 24 25 27 30 33 36 37 38 38 38 37 38 38 38 38 38 38 37 35 34 32 31 29 28 27 26
8 9 10 11 11 12 12 14 15 16 17 18 19 21 23 25 28 30 31 32 33 33 33 33 33 34 34 35 34 34 33 32 32 31 29 28 28 27 26 26 25 24 24
7 8 9 10 11 13 15 17 18 20 22 23 24 25 26 28 29 29 29 29 29 29 30 31 31 31 31 30 29 28 28 27 27 26 25 25 24 24 24 23 23 23 22
13 14 15 16 18 18 19 21 22 23 24 25 25 26 26 25 25 25 26 27 28 29 29 29 27 26 25 25 25 25 24 24 24 23 22 22 22 21 21 21 21 20 19
18 19 19 19 20 20 21 21 22 21 21 21 21 21 22 23 24 25 26 26 27 27 26 25 24 24 24 23 23 22 22 21 20 20 19 19 19 19 19 18 18 18 18

GFSGL_700_spd_078.txt.gz
Wind_Speed
22 20 18 17 15 14 13 12 11 11 11 12 13 21 27 27 30 34 38 38 38 41 43 44 44 43 44 44 45 46 45 46 49 49 51 51 51 44 45 46 43 33 39
26 24 22 21 20 19 17 17 17 17 18 18 19 19 22 23 27 30 33 39 39 46 43 41 41 41 40 48 47 50 49 47 52 56 56 58 58 55 52 53 42 39 43
30 28 26 24 23 21 21 21 23 23 23 23 25 24 24 24 25 26 27 29 34 39 40 41 42 43 45 46 46 47 48 49 51 55 67 61 63 66 61 51 44 44 45
33 32 30 29 27 27 26 27 28 28 29 30 29 28 27 27 28 28 29 31 32 33 35 38 40 43 45 46 48 47 46 50 55 54 47 44 41 33 35 35 38 39 44
34 34 31 32 33 33 32 32 34 35 35 33 34 35 34 33 33 34 33 34 35 35 35 37 42 42 48 51 53 51 52 60 57 42 38 38 38 39 36 40 42 46 46
21 30 35 37 36 35 34 34 34 34 35 36 37 38 39 40 39 37 37 39 39 39 40 39 39 40 43 44 42 44 46 50 58 49 49 45 43 46 48 41 43 53 54
26 23 28 33 37 37 35 34 30 30 32 33 34 36 37 38 38 39 40 41 42 44 43 42 42 41 40 41 39 42 44 48 53 52 48 52 52 48 54 48 58 59 49
33 33 28 29 33 36 36 36 34 33 31 32 34 33 33 31 32 32 36 41 43 44 45 48 50 47 42 39 39 44 47 56 51 46 51 49 54 53 54 54 52 46 42
27 31 36 34 36 34 37 38 40 40 39 37 35 33 32 30 30 30 33 36 40 41 42 45 48 49 48 46 48 50 52 51 54 49 49 48 50 50 52 55 47 42 43
33 31 34 34 37 41 40 40 42 44 43 42 42 40 39 38 36 34 33 31 34 37 38 40 42 45 46 44 43 50 53 51 51 54 55 56 56 47 48 41 39 41 47
38 39 36 38 38 36 41 42 43 47 50 47 45 46 48 46 44 42 39 37 35 36 35 37 41 41 43 44 47 49 51 51 52 55 56 54 50 41 34 38 40 42 45
31 38 39 39 41 41 43 44 43 47 43 46 48 53 59 54 50 48 44 42 40 37 37 42 44 45 46 47 48 52 51 52 53 55 47 38 33 36 40 43 45 43 43
33 34 40 39 39 40 45 42 44 47 49 53 55 61 62 60 53 49 46 45 42 39 42 42 47 49 49 45 47 51 50 48 39 32 33 36 39 41 42 42 41 42 45
36 32 35 36 40 43 43 44 39 44 49 48 47 45 44 46 55 52 46 43 48 48 47 49 45 45 42 46 44 36 32 30 32 33 34 37 38 38 40 42 44 45 44
32 32 30 32 30 38 38 42 35 32 32 38 45 46 50 53 51 56 52 49 44 43 42 44 42 36 31 31 32 27 28 29 30 30 32 35 38 41 42 41 41 42 43
28 20 24 25 30 31 39 44 46 43 46 52 47 46 46 37 46 39 38 40 42 35 34 31 24 21 23 24 25 27 27 28 31 34 36 38 38 38 38 39 41 44 47
28 22 28 34 31 21 30 41 47 47 45 48 56 49 40 36 38 33 35 37 24 18 18 18 19 21 23 25 26 29 31 34 36 36 35 36 37 39 42 44 45 46 47
24 23 24 24 22 23 17 18 16 16 17 22 25 31 28 24 22 16 15 15 15 17 18 18 20 23 25 27 29 31 32 33 33 35 37 40 41 42 43 44 44 45 46
22 22 19 20 20 20 18 12 10 10 12 8 9 12 11 9 10 12 13 14 16 17 18 20 21 24 26 28 30 30 33 35 38 39 39 40 41 42 42 42 42 43 43
18 15 13 13 12 10 13 12 11 12 10 10 9 9 10 11 12 12 14 15 17 19 21 23 25 27 28 30 33 34 36 37 37 37 38 38 38 38 39 39 38 36 35
10 10 11 10 9 8 8 9 10 10 10 10 11 12 13 14 16 18 20 21 22 24 25 27 28 31 32 32 33 33 33 34 34 34 35 35 35 35 34 33 31 29 28
10 9 9 10 11 10 11 12 12 13 13 14 15 15 16 17 18 20 21 23 25 28 29 30 30 29 29 30 31 31 31 31 31 31 31 31 30 29 28 27 26 24 24
9 10 10 10 9 10 11 12 12 13 14 15 16 18 21 22 24 24 25 26 26 26 26 26 27 28 28 29 29 28 28 27 27 27 26 26 25 24 24 23 23 23 22
12 13 13 14 15 16 16 17 18 18 19 20 21 22 23 24 24 24 24 24 23 23 24 26 26 27 27 27 26 26 25 24 24 23 22 22 22 22 21 21 21 20 20
15 17 17 18 18 19 19 20 20 20 20 21 21 21 21 20 20 21 21 23 24 24 24 25 25 25 24 24 23 23 22 22 22 21 21 20 19 19 19 19 18 17 17
18 17 17 16 16 16 16 16 16 16 16 16 17 17 18 19 20 21 21 22 22 23 23 23 23 23 23 22 22 21 21 21 20 19 18 18 18 18 17 16 16 16 16

GFSGL_700_spd_081.txt.gz
Wind_Speed
18 19 18 16 14 13 10 10 9 9 9 9 11 15 18 21 29 32 32 39 49 51 54 50 46 48 42 37 41 41 42 44 49 48 44 41 47 48 48 49 46 54 48
23 22 22 21 19 17 15 13 14 13 13 14 14 15 16 18 23 28 27 26 33 40 44 50 49 44 44 46 46 45 48 46 51 56 48 44 50 50 51 53 55 46 55
29 27 25 25 24 21 20 20 19 18 17 18 19 19 20 21 22 23 27 29 31 31 36 40 40 41 46 43 41 41 41 42 48 51 45 46 50 48 51 50 47 42 50
18 29 28 27 27 26 26 26 26 25 24 23 23 24 25 25 26 26 27 29 30 29 29 30 28 32 33 37 41 43 43 48 49 49 53 53 53 51 53 46 38 40 37
13 16 30 30 30 30 30 31 31 31 30 30 30 30 30 30 30 31 31 30 31 32 32 32 32 32 33 31 36 41 44 45 51 48 54 54 54 49 49 47 44 42 41
21 11 12 21 35 33 34 35 36 35 35 35 36 36 35 35 33 33 34 35 35 35 35 36 36 36 37 37 37 42 38 39 50 46 47 49 48 48 50 41 49 52 49
28 23 19 20 21 23 29 36 40 40 41 38 37 36 34 34 33 33 35 37 38 39 38 38 40 40 39 39 40 43 44 41 45 45 45 46 45 48 50 46 45 46 43
23 30 33 33 29 26 27 29 30 38 43 41 39 37 37 33 32 34 35 38 40 39 40 40 42 41 42 44 45 46 47 48 47 43 48 51 55 52 47 43 54 55 49
33 32 36 37 38 42 37 32 30 31 35 40 43 41 40 38 37 35 36 38 41 41 41 41 41 41 40 41 45 50 53 54 56 54 55 54 53 57 51 48 48 51 54
29 34 36 38 39 39 41 43 43 40 41 39 39 46 45 43 41 38 39 43 44 44 43 45 44 46 50 47 46 47 52 54 53 48 48 54 59 57 51 44 52 46 44
27 32 32 33 41 44 43 41 43 42 47 51 50 48 47 49 47 44 44 43 47 48 47 46 48 46 44 48 47 45 43 45 53 53 56 57 54 51 51 49 40 35 33
26 26 31 33 34 42 47 45 45 45 49 43 39 41 36 33 36 40 43 47 59 57 55 52 51 54 51 49 50 54 55 55 55 63 51 52 51 42 39 31 32 34 35
33 34 31 30 34 36 42 46 47 44 48 46 39 37 39 42 49 54 53 53 57 60 56 58 57 60 56 69 67 61 61 57 48 48 51 41 33 33 30 31 32 33 35
35 36 37 33 32 33 37 42 44 47 45 45 45 47 48 49 54 58 53 57 57 65 66 62 68 64 68 60 47 48 47 38 30 28 26 25 28 28 29 31 33 36 39
33 33 33 32 32 37 35 37 39 44 45 45 44 48 48 54 46 56 54 57 52 60 62 57 50 46 45 44 38 28 22 20 20 21 23 26 28 31 33 35 37 38 39
31 28 28 29 27 23 26 33 40 38 41 44 48 50 48 51 46 51 57 60 39 43 38 35 26 23 16 14 14 14 16 19 20 23 26 28 31 33 34 36 38 39 40
28 25 21 25 22 21 23 19 22 26 31 35 38 60 41 49 33 49 43 30 21 17 10 8 9 9 10 12 14 16 19 21 24 27 28 31 33 35 36 36 36 37 39
19 20 21 23 21 20 21 19 18 15 12 12 12 11 13 5 5 4 5 7 6 6 8 10 13 14 15 17 20 22 24 26 28 30 32 33 33 34 34 35 35 36 37
13 18 18 19 18 15 13 15 10 10 7 7 5 5 3 5 4 6 5 6 8 10 12 13 15 17 19 22 23 25 26 27 29 30 30 31 32 32 32 33 33 34 34
10 9 9 10 12 11 10 10 10 8 6 5 4 3 3 3 5 7 8 8 10 12 14 16 18 19 21 23 26 28 28 27 27 28 28 28 29 29 29 29 29 29 29
11 9 9 9 8 8 8 7 7 7 7 7 7 8 8 8 9 11 12 13 14 14 16 19 22 24 25 24 24 24 24 25 26 27 27 27 26 26 27 27 26 26 25
8 7 7 8 9 9 10 10 10 10 9 9 9 9 10 11 13 15 17 19 19 19 19 19 20 21 21 22 22 22 23 23 24 24 24 24 24 24 23 23 22 22 22
9 10 10 10 11 12 14 14 14 15 15 16 16 16 17 17 18 18 18 18 19 18 18 19 20 20 21 22 22 22 23 22 22 22 22 23 22 22 21 20 20 20 20
14 14 15 16 16 16 17 17 18 19 19 19 19 18 17 17 18 18 18 18 19 20 20 21 21 21 21 22 22 22 22 22 21 20 21 21 20 20 19 18 18 18 18
18 18 18 18 17 18 17 17 17 17 17 17 17 17 17 16 17 19 19 19 19 20 20 21 21 22 22 23 23 22 21 21 20 20 20 19 19 17 17 17 17 16 15
16 15 15 15 15 15 15 15 15 16 16 16 16 17 18 16 18 18 18 19 20 20 21 21 22 22 21 21 21 20 20 19 19 18 18 18 17 17 16 16 15 14 14

GFSGL_700_spd_084.txt.gz
Wind_Speed
16 15 15 13 12 11 10 9 7 8 9 9 10 14 18 23 30 31 32 35 42 43 45 45 48 48 44 42 42 45 49 44 50 46 41 40 41 40 44 44 42 44 44
16 19 19 18 17 16 14 13 13 12 11 11 11 12 14 17 22 27 29 30 34 35 35 39 41 48 48 48 47 42 47 47 47 50 44 49 47 46 46 51 45 45 44
7 14 21 24 23 21 19 18 18 18 18 18 18 17 16 17 20 23 26 28 31 33 33 35 36 41 40 40 42 43 44 46 48 52 53 47 47 44 47 49 49 48 48
4 3 8 20 27 27 26 24 23 22 23 23 24 25 25 25 25 26 27 29 30 31 31 30 31 34 33 36 41 42 44 49 51 54 52 50 50 51 51 55 49 46 47
13 13 7 2 11 22 29 31 31 30 29 29 30 30 31 31 30 30 30 30 32 33 34 34 34 34 33 35 40 38 42 46 44 48 49 48 54 50 49 43 46 50 46
20 25 22 19 14 13 15 22 31 33 34 35 36 36 37 36 35 34 34 35 36 36 37 38 38 38 38 38 40 41 43 45 48 51 51 50 46 47 43 52 49 46 48
26 24 25 29 29 26 24 23 25 30 30 35 38 41 40 39 38 39 39 41 41 40 40 41 41 41 41 42 43 45 47 49 51 53 54 53 50 49 45 44 46 45 49
22 24 27 25 26 30 34 33 28 29 29 28 30 36 43 43 40 40 40 43 44 43 43 43 45 44 45 46 47 48 50 52 52 53 55 55 54 55 59 55 57 59 55
20 22 27 31 35 36 36 36 38 39 40 37 36 36 34 34 40 43 43 44 46 45 44 45 45 45 45 46 48 49 50 52 51 52 52 56 59 57 62 65 67 62 62
20 23 26 29 31 35 41 42 41 42 39 40 45 49 48 44 41 37 39 45 47 48 44 48 44 45 45 42 42 45 48 49 55 62 56 61 65 63 66 70 57 57 58
16 17 20 23 28 32 36 38 40 43 46 45 43 44 46 45 51 44 43 46 48 50 48 51 48 46 43 44 48 54 58 54 60 63 66 69 69 70 59 61 63 61 55
21 22 22 23 25 27 30 36 42 43 44 49 51 49 49 47 49 48 42 40 43 46 47 53 49 44 50 54 57 56 59 63 64 65 70 74 73 70 61 48 36 36 33
25 27 28 30 33 35 33 32 33 40 45 45 47 50 53 53 50 46 48 42 44 49 53 52 54 54 61 62 61 60 65 72 73 77 72 65 50 41 41 33 29 26 28
27 27 30 32 34 38 41 43 40 38 37 40 41 41 48 54 52 53 54 57 58 61 61 52 65 67 77 70 69 72 76 66 52 38 35 28 25 21 21 23 25 25 28
31 31 31 33 35 35 35 35 36 37 36 34 35 35 42 49 54 55 59 52 57 55 57 57 62 66 64 60 39 30 21 21 19 18 16 16 18 19 23 24 26 28 31
31 32 31 28 29 27 29 34 33 33 30 28 25 33 38 42 45 54 37 39 49 42 40 32 28 24 25 22 19 17 14 13 13 16 17 19 22 23 26 27 29 32 35
26 24 20 19 24 27 26 27 29 29 27 21 15 11 12 15 17 17 20 15 9 12 11 10 6 6 5 7 9 10 11 13 16 18 21 22 25 26 28 30 31 32 33
19 19 22 22 20 24 24 20 18 19 19 16 14 11 9 6 6 4 4 2 3 2 2 3 4 6 7 8 11 14 15 18 19 21 23 25 26 26 27 29 30 31 32
17 17 16 16 14 13 12 12 12 11 10 9 9 8 7 3 3 4 4 3 4 6 8 6 8 11 13 16 15 16 18 20 22 23 24 24 25 27 27 28 29 29 29
15 14 13 13 12 11 10 10 9 8 7 6 5 5 6 6 5 5 7 7 9 11 13 14 14 15 16 19 21 22 23 22 22 22 23 23 23 24 25 25 25 25 24
11 11 11 10 10 11 10 10 10 10 9 8 8 8 9 9 10 11 11 12 13 15 17 19 19 18 18 18 18 19 19 20 21 21 22 22 21 21 21 21 21 21 21
7 7 8 9 9 10 11 11 12 12 12 13 13 13 13 14 15 16 16 16 17 18 18 18 17 17 17 17 18 19 19 19 20 20 20 19 19 19 19 18 18 18 17
10 11 12 13 14 15 15 16 16 17 17 16 17 17 18 18 18 17 16 16 16 16 16 16 15 15 16 17 17 17 18 18 18 18 17 17 17 17 17 17 17 17 17
15 16 16 17 18 18 18 18 18 17 17 16 15 15 15 14 14 15 16 16 16 16 17 17 17 17 18 18 18 18 17 17 17 18 18 17 17 16 16 16 16 16 16
18 18 18 17 17 17 16 16 16 15 15 15 14 14 16 16 15 14 14 15 15 15 16 17 18 19 19 19 19 19 19 18 18 17 17 17 16 16 15 16 16 16 15
16 16 15 15 15 15 15 16 16 15 15 15 15 16 17 18 18 19 19 20 19 19 19 19 19 19 20 20 20 19 18 18 17 16 17 17 16 15 15 15 15 15 14

GFSGL_700_spd_087.txt.gz
Wind_Speed
14 13 13 13 11 10 8 7 7 8 9 10 17 29 32 32 30 28 30 30 36 39 39 42 42 46 49 49 45 45 47 48 55 53 42 39 33 37 38 35 38 41 44
13 15 16 16 16 15 13 11 11 10 10 10 12 13 16 22 26 29 33 34 35 35 39 42 45 48 46 47 46 49 51 50 45 43 39 41 46 40 41 42 44 51 52
12 12 14 18 19 19 19 18 17 15 15 15 15 16 17 19 20 22 25 29 32 34 34 35 38 43 41 41 43 44 46 48 50 51 49 48 45 46 48 50 51 47 48
15 16 16 16 20 21 24 25 23 22 22 21 22 22 22 22 24 25 27 28 29 31 32 34 35 36 37 39 41 41 45 48 50 54 52 47 50 50 50 53 51 47 47
14 14 13 13 14 19 27 28 28 28 28 28 28 28 29 29 30 30 31 31 32 34 35 35 37 38 38 39 43 40 43 46 48 53 57 56 56 56 51 50 51 44 50
12 16 19 18 16 21 19 22 25 29 32 33 33 32 34 35 35 36 36 38 38 39 39 39 40 41 40 41 44 43 46 48 48 50 53 56 55 54 53 49 49 51 49
18 20 22 22 25 30 28 27 22 22 26 27 27 26 29 31 35 38 39 42 44 45 44 44 45 45 44 45 46 48 48 50 52 51 56 56 57 55 56 58 57 54 55
18 21 22 21 24 26 26 28 29 33 30 30 30 30 30 31 28 28 29 35 42 45 46 48 50 50 50 50 50 52 52 53 54 56 58 59 60 60 60 60 59 57 58
19 19 20 21 25 29 31 32 34 35 35 37 39 40 38 37 37 38 38 35 36 35 41 44 45 48 51 53 55 55 56 56 56 57 59 60 59 59 60 60 62 61 60
17 19 20 21 23 25 27 30 32 35 37 39 40 43 43 45 48 49 53 55 58 50 44 39 41 42 44 46 53 55 58 59 55 60 60 62 61 61 62 60 59 74 68
16 18 20 22 22 23 24 25 26 30 35 39 41 43 47 50 50 46 45 45 47 50 56 56 50 48 50 52 48 45 53 51 51 51 55 57 63 65 67 71 67 66 68
15 16 17 19 20 21 22 24 25 26 29 32 36 40 46 50 52 54 51 48 47 49 48 52 61 62 61 52 54 58 54 59 61 57 59 64 66 68 73 72 68 69 66
20 19 20 21 22 23 25 27 30 32 33 31 32 35 41 45 50 52 51 49 50 47 52 56 59 61 58 56 63 67 66 63 55 74 67 70 73 65 60 54 45 37 34
21 22 23 24 25 28 30 31 31 31 30 31 32 33 33 38 45 46 49 45 50 50 54 64 63 64 57 62 53 57 65 68 59 53 40 36 37 32 29 27 25 23 23
23 24 26 28 27 30 30 29 27 25 27 30 30 28 29 33 37 42 44 44 50 49 47 57 48 49 52 58 50 53 48 39 32 28 26 24 22 20 19 20 22 23 25
24 25 27 28 27 27 26 26 25 25 25 26 26 26 25 25 29 33 34 34 30 24 30 25 28 31 28 26 21 13 13 14 15 15 15 16 17 18 20 21 24 26 28
23 23 23 24 24 25 26 25 26 27 25 24 23 23 21 20 19 22 24 13 9 8 8 7 6 7 7 4 5 6 6 9 12 14 17 18 19 20 22 25 28 28 29
20 20 20 19 20 20 21 21 21 19 19 19 19 18 18 16 14 11 10 11 9 7 6 6 5 4 5 6 9 11 13 16 16 18 20 20 23 26 27 26 26 26 27
20 20 19 18 18 19 18 17 17 16 16 16 16 15 14 13 12 10 9 9 8 9 10 10 10 11 12 14 15 16 18 19 21 24 24 23 23 22 22 23 23 23 23
19 18 17 16 15 14 14 15 15 15 15 15 15 14 13 13 13 13 13 13 14 15 15 15 16 17 18 21 22 24 24 23 21 20 20 21 21 22 22 22 22 22 22
16 15 14 14 13 13 12 12 13 13 14 13 13 14 15 15 16 16 17 18 19 19 20 19 19 19 19 19 19 19 19 19 19 20 20 20 20 20 20 20 20 20 21
13 12 12 12 13 13 14 15 15 15 17 17 18 18 17 18 18 19 20 20 20 20 19 19 19 19 18 18 18 19 19 19 19 19 19 19 19 19 20 20 20 20 20
13 14 15 16 17 18 19 19 20 21 20 21 20 20 19 19 18 18 18 17 17 16 17 17 18 18 18 18 18 18 19 19 19 19 19 19 19 19 19 19 19 18 17
16 17 18 19 19 20 20 20 20 19 19 18 18 17 16 16 16 17 17 17 17 17 17 17 17 17 18 18 18 18 18 18 18 18 17 17 17 17 16 16 15 15 15
20 20 20 19 18 18 18 17 17 17 18 18 18 18 17 17 17 17 16 17 17 18 18 18 18 19 19 20 19 19 19 19 19 18 18 17 16 16 16 15 15 14 14
19 19 18 18 18 17 17 16 16 17 17 17 18 18 18 18 19 19 20 20 20 20 20 20 21 21 20 20 19 19 18 17 17 17 17 16 16 15 14 14 14 13 13

GFSGL_700_spd_090.txt.gz
Wind_Speed
20 18 16 15 12 11 8 8 7 8 8 13 21 22 23 26 25 25 25 25 27 30 36 42 41 38 45 36 42 40 39 47 47 39 38 39 44 48 51 36 35 38 39
19 21 19 18 17 15 13 11 10 9 9 10 12 16 22 30 31 32 30 28 31 34 33 35 36 36 38 39 39 42 45 44 45 47 45 50 48 44 39 38 40 45 39
18 20 22 21 21 20 18 16 15 15 14 14 14 14 15 16 21 24 29 30 30 28 30 32 32 32 37 38 42 43 44 46 46 47 49 45 46 46 47 45 49 48 46
25 22 21 20 20 21 22 21 21 20 20 19 18 19 19 20 21 22 24 27 28 28 30 32 34 36 37 39 41 42 47 48 47 51 52 49 50 52 53 55 55 53 56
20 16 15 14 15 15 17 19 21 23 24 24 24 24 24 24 24 25 26 28 31 32 33 34 36 37 37 40 44 43 46 49 50 52 54 51 49 48 49 47 52 48 51
18 20 22 26 26 24 19 14 23 20 17 24 28 29 29 29 29 31 32 34 35 36 37 37 38 39 39 42 45 45 49 52 52 53 55 56 53 51 50 53 52 53 55
16 17 19 22 23 24 24 23 27 33 37 27 25 24 26 25 27 30 31 34 37 39 39 41 44 45 44 45 46 48 50 51 54 54 58 58 58 56 55 56 58 57 58
12 15 17 18 19 21 22 22 24 27 31 32 30 28 30 29 31 31 31 32 38 40 42 42 40 42 47 51 53 55 55 55 56 56 60 61 62 62 61 60 60 59 60
10 13 14 16 18 21 25 27 27 27 28 29 30 31 34 38 40 42 41 42 42 42 42 40 43 46 46 45 45 52 56 59 59 59 62 64 65 63 62 61 62 59 61
12 14 15 17 19 21 23 25 27 28 31 33 35 36 36 38 41 42 42 47 49 50 51 51 50 51 49 53 50 51 49 50 54 54 55 64 65 66 62 61 63 63 64
14 16 17 18 19 20 22 23 24 25 26 27 29 31 33 35 37 40 43 43 43 46 49 50 53 53 56 58 59 59 65 60 62 61 57 67 63 65 64 64 63 61 65
15 17 18 20 21 21 20 20 21 22 23 25 27 29 32 34 36 38 40 41 42 45 48 50 52 51 53 56 58 57 63 59 56 64 68 68 72 68 69 73 65 67 66
17 17 18 19 20 20 21 23 23 24 25 27 27 26 25 25 27 28 30 31 33 37 41 48 51 54 56 57 57 61 63 62 59 56 64 66 55 61 63 61 64 62 50
17 17 17 17 19 20 20 22 23 24 25 25 26 26 27 28 28 29 29 28 28 30 36 39 43 50 55 61 63 59 55 55 55 44 46 39 40 42 39 37 32 29 27
16 16 17 19 18 19 20 20 21 21 22 23 24 26 26 26 27 27 27 27 26 25 25 31 38 46 43 43 46 34 37 33 27 32 24 21 20 19 18 18 17 18 18
18 19 19 20 20 20 19 19 19 20 21 21 21 21 20 20 20 20 20 20 19 17 16 15 17 21 23 21 19 17 14 12 11 11 12 12 13 14 16 18 20 21 21
19 19 19 20 20 19 19 19 18 18 17 17 17 18 18 18 17 17 16 16 15 13 12 12 11 10 9 11 13 11 10 10 11 13 14 15 17 20 22 23 24 25 27
19 19 19 19 18 18 18 17 16 16 16 16 16 16 16 16 15 14 14 14 14 14 14 14 13 12 12 12 13 14 15 17 18 19 20 22 23 24 25 26 26 25 24
18 17 18 18 18 18 17 17 17 17 16 16 15 15 14 15 15 15 14 14 14 15 15 15 15 16 17 17 18 19 21 22 24 25 25 23 22 21 21 20 21 21 22
16 16 16 17 17 16 16 16 16 16 16 15 15 14 14 14 15 16 16 17 17 17 17 19 19 20 20 21 21 21 20 20 21 21 21 21 20 20 20 21 21 21 21
16 15 14 14 14 14 14 14 15 15 16 17 17 18 18 18 18 19 20 20 21 22 22 21 21 21 20 20 20 20 20 20 20 20 20 20 20 20 20 20 20 19 20
14 14 14 14 15 16 17 17 18 19 20 20 20 21 21 22 22 21 21 20 20 20 19 20 20 19 20 20 20 20 20 20 21 21 21 21 22 22 21 21 21 20 20
14 15 16 17 18 19 20 21 21 22 22 22 21 20 19 19 19 18 18 19 18 18 18 19 19 19 19 19 19 20 20 20 20 21 21 22 21 21 21 20 20 19 18
17 18 19 20 20 21 21 21 21 20 20 20 19 19 18 18 18 18 18 18 17 17 18 18 19 20 20 20 20 21 21 21 21 20 20 20 20 19 19 18 17 16 16
19 20 20 20 20 20 20 20 20 20 20 19 18 18 17 18 18 18 18 19 19 19 19 19 20 20 20 20 20 20 20 20 20 20 19 19 19 19 18 17 16 15 15
20 20 20 20 20 20 20 20 20 20 19 19 19 19 19 19 19 19 20 21 21 21 22 22 22 21 21 20 20 20 20 20 19 19 18 18 18 17 17 16 16 15 15

GFSGL_700_spd_093.txt.gz
Wind_Speed
23 21 19 19 17 14 12 11 10 10 9 8 11 18 19 21 23 23 22 21 18 21 22 22 30 33 32 36 38 46 45 47 49 39 36 34 36 38 38 41 39 43 47
25 23 23 22 21 19 16 14 12 11 10 11 13 15 17 19 22 25 23 20 21 23 24 26 26 30 37 43 42 36 40 38 37 39 40 41 41 37 40 45 43 49 51
28 27 26 26 25 23 21 19 17 15 13 12 12 12 14 19 22 25 26 26 26 28 28 30 31 33 36 36 38 39 38 39 42 44 45 42 44 45 47 46 45 47 47
32 30 28 28 27 25 24 22 20 18 17 15 15 14 14 15 16 17 19 22 25 27 29 30 31 31 32 34 36 37 38 41 42 46 44 43 46 45 49 46 47 47 52
34 28 22 23 22 21 20 20 19 19 18 17 17 18 19 19 20 20 21 23 25 26 28 29 30 32 33 35 39 38 42 45 46 49 52 49 47 48 51 51 55 49 51
27 24 27 19 15 13 11 11 14 17 17 18 16 16 20 22 24 26 27 27 29 30 31 32 33 34 34 37 40 40 43 46 47 49 51 53 53 52 53 55 56 56 57
26 23 27 32 26 23 24 26 26 26 26 27 27 27 23 26 26 28 29 31 32 33 33 34 35 36 37 40 42 44 45 46 47 49 55 57 58 55 55 56 58 59 60
14 9 24 30 29 24 22 26 28 27 27 26 27 29 28 31 32 30 27 26 29 30 30 30 32 34 35 36 37 36 34 36 40 40 45 49 53 59 63 63 62 62 62
3 3 8 13 16 18 21 23 24 24 26 27 29 31 35 40 39 38 37 38 37 40 42 44 53 51 46 44 44 45 49 49 53 54 52 53 54 53 53 56 58 59 62
4 7 9 10 12 15 18 20 22 24 24 26 26 28 31 33 34 35 36 39 42 45 45 48 51 52 53 53 54 54 56 54 55 56 56 58 64 64 67 60 60 57 59
8 9 10 10 11 14 15 16 18 20 21 23 24 26 27 29 30 31 32 33 35 38 42 45 49 50 51 51 49 50 52 55 54 59 59 64 60 64 65 67 66 60 62
11 11 13 13 13 14 16 17 19 20 21 22 24 26 28 29 31 33 33 34 35 36 37 38 40 43 45 48 51 51 51 55 59 61 59 64 57 57 53 56 53 55 56
10 12 12 12 14 16 16 17 19 19 21 23 24 26 28 29 29 29 28 29 30 30 32 34 36 38 41 41 39 39 43 48 56 56 53 58 49 48 45 46 44 42 43
11 13 14 14 15 16 16 17 19 21 22 24 24 25 25 26 26 27 27 27 27 27 27 28 30 32 35 38 38 36 34 36 40 41 46 44 39 34 31 29 27 24 24
10 12 13 13 14 15 17 18 19 20 21 22 23 24 25 26 26 26 26 26 26 25 24 25 25 26 27 28 29 28 27 26 22 21 21 21 20 19 17 16 16 18 17
12 13 14 15 15 16 16 17 18 19 20 21 22 22 23 23 23 24 25 26 25 24 23 22 21 21 21 21 21 19 17 15 14 13 12 13 14 15 16 17 18 20 21
16 15 16 16 17 17 18 18 18 18 18 18 19 19 20 22 22 22 22 21 21 20 19 18 17 17 17 17 16 16 15 15 15 15 16 16 18 19 20 22 24 25 25
17 18 18 19 19 18 18 18 18 17 17 17 17 17 16 17 17 18 19 19 18 17 16 15 16 16 16 16 16 17 17 18 19 19 20 22 23 23 23 22 22 22 22
17 17 18 18 18 18 17 17 16 16 16 16 16 16 16 17 16 16 17 17 17 17 17 17 18 18 19 19 20 21 21 20 20 20 20 20 19 19 19 19 19 19 20
19 18 18 17 16 15 15 14 14 14 14 14 15 15 15 15 16 17 17 17 18 19 20 21 22 22 21 21 20 20 19 20 20 19 19 19 19 19 19 19 19 19 19
17 16 16 15 15 15 14 14 14 15 16 16 17 17 18 19 19 20 20 21 21 21 20 20 19 19 19 19 19 19 19 19 18 19 19 19 19 19 19 19 19 20 20
16 15 14 14 15 15 16 16 17 18 19 19 19 20 19 19 19 19 19 19 18 18 18 18 19 19 19 19 19 19 19 19 19 20 20 21 21 21 21 21 21 20 20
15 15 15 16 16 17 18 19 19 19 19 19 19 19 18 18 18 18 18 18 18 18 18 18 18 18 18 19 19 20 20 21 22 22 22 22 22 22 21 21 20 20 20
16 17 17 18 18 19 19 20 20 19 19 19 19 19 19 19 18 18 17 17 17 18 18 18 18 19 20 20 21 21 21 21 21 22 22 22 21 21 21 20 20 20 19
18 18 18 19 19 19 19 20 20 19 19 19 19 19 19 19 19 19 19 19 19 19 19 19 20 20 20 20 20 21 21 21 20 20 20 20 20 20 20 20 19 18 18
19 19 19 19 19 19 19 19 19 19 19 19 19 19 19 19 19 19 20 20 20 20 20 20 20 20 21 21 21 21 21 21 21 21 20 20 20 20 19 19 18 17 16

GFSGL_700_spd_096.txt.gz
Wind_Speed
34 32 25 23 21 18 14 15 13 13 13 17 22 29 26 22 25 26 26 23 29 20 23 23 22 22 29 26 29 33 38 42 42 42 45 43 50 44 36 33 34 39 42
37 34 28 25 23 22 18 17 15 13 12 12 12 16 26 25 29 27 25 24 23 21 22 20 21 21 24 25 27 28 31 40 42 42 38 40 42 35 34 37 38 38 41
41 37 30 27 26 26 22 21 18 16 14 13 11 11 11 14 17 18 21 23 22 21 19 22 21 22 26 26 26 30 33 37 39 41 40 38 37 35 37 39 40 41 47
41 39 33 28 29 28 26 25 23 20 18 15 14 13 12 13 15 18 19 21 22 22 24 24 23 25 25 27 27 28 32 34 36 38 37 37 38 34 39 39 40 41 40
41 40 34 30 31 30 29 27 26 24 22 20 18 17 17 19 21 20 20 21 21 21 21 23 24 26 27 29 30 30 34 37 39 41 43 42 41 44 46 46 47 45 48
41 39 36 31 29 29 29 29 28 26 25 24 23 22 22 25 22 22 23 24 25 25 26 27 28 30 31 33 35 36 38 40 40 42 45 48 48 45 44 46 47 52 56
30 34 31 29 27 24 25 24 23 24 26 26 23 25 27 28 26 26 26 26 28 28 29 30 31 32 33 35 37 39 40 41 43 43 46 46 46 45 48 47 51 57 58
28 27 28 31 36 37 30 24 22 22 22 26 26 28 28 29 28 26 25 26 27 28 31 31 30 30 33 34 35 35 34 36 41 44 45 45 45 48 49 51 53 57 53
23 26 27 27 26 33 31 35 30 27 28 29 33 33 31 32 31 30 30 30 33 35 36 37 38 40 42 44 44 46 47 49 51 49 50 53 56 56 55 54 57 57 59
14 18 20 13 17 13 24 26 24 23 24 27 28 28 28 27 26 28 29 30 34 36 38 41 43 45 47 49 49 50 50 51 55 57 58 55 57 59 61 62 61 64 63
5 5 5 6 6 11 10 12 14 17 19 20 22 24 24 24 25 26 27 29 31 33 34 36 38 39 41 43 45 46 48 50 51 53 55 57 56 55 58 62 65 60 60
3 2 5 4 6 9 14 15 16 18 19 21 22 23 23 24 24 25 25 27 29 31 32 34 35 35 35 36 37 38 39 41 43 45 49 55 58 64 61 60 57 58 53
6 7 9 10 12 14 12 14 16 17 19 21 22 23 25 26 26 26 25 26 26 27 30 32 34 36 37 37 37 37 37 37 37 37 39 40 42 44 46 46 45 43 41
5 5 7 9 10 12 13 13 15 15 16 18 21 22 22 23 24 24 24 25 26 27 28 30 32 33 35 36 36 36 35 34 32 31 29 30 31 31 31 31 30 28 26
7 8 9 9 9 10 11 11 12 13 15 16 17 18 20 22 23 23 23 24 25 25 26 27 28 29 30 30 31 30 28 27 25 24 23 23 23 23 23 23 22 22 23
10 11 12 13 13 13 13 13 14 14 15 17 18 19 20 21 21 22 22 23 23 23 24 24 24 25 25 25 25 25 24 24 23 22 21 20 20 20 20 21 22 24 25
11 11 12 13 14 15 16 17 17 18 18 18 18 19 20 20 21 21 22 22 23 23 23 23 23 23 24 24 25 25 26 25 25 25 25 24 25 26 26 27 27 28 28
15 15 15 15 16 17 17 17 18 18 18 18 18 18 19 20 20 21 21 21 21 21 21 21 23 23 24 24 25 25 26 26 27 27 27 27 27 26 25 25 25 24 24
17 18 18 18 18 18 18 18 18 18 18 18 18 18 18 18 19 19 19 19 20 21 22 22 23 23 24 24 25 26 26 26 26 25 25 24 24 24 24 23 23 23 23
17 17 18 18 18 18 17 17 17 17 17 17 17 17 18 18 19 20 20 21 23 23 24 24 25 25 26 26 25 25 24 23 23 23 22 22 23 23 22 22 21 22 22
16 17 17 17 17 17 17 17 17 17 18 18 19 19 20 21 22 23 24 25 25 25 25 25 25 24 23 23 22 22 22 22 22 21 21 21 21 22 22 22 22 22 22
17 17 17 18 18 18 18 18 19 19 20 20 21 22 22 23 24 24 24 24 23 23 23 23 23 23 23 23 22 21 21 21 22 22 22 23 23 23 23 23 23 22 22
16 16 17 17 17 18 18 19 20 20 21 21 22 22 22 23 23 23 23 23 23 23 22 22 22 22 22 22 22 22 23 23 24 24 24 24 24 24 24 23 23 22 22
18 18 18 18 18 19 19 20 20 20 21 21 22 22 22 22 22 22 22 22 22 22 22 22 22 23 23 23 24 24 24 24 24 24 24 24 24 24 24 23 23 23 22
20 20 21 21 21 21 21 21 21 22 22 22 21 22 22 22 22 22 22 23 23 23 23 23 24 24 24 24 24 24 24 24 25 25 25 25 25 24 24 24 24 23 22
21 21 22 22 22 22 23 23 23 23 22 22 23 23 23 23 22 23 23 23 23 24 24 24 24 24 24 24 24 24 25 25 25 25 26 26 26 25 25 25 24 23 22

GFSGL_700_spd_102.txt.gz
Wind_Speed
35 36 38 38 43 37 30 26 21 20 21 21 17 13 14 20 18 21 31 30 29 30 30 23 19 20 21 24 27 29 29 31 29 25 28 33 34 30 28 32 35 24 33
34 36 36 44 42 37 31 27 23 21 20 19 17 14 15 17 20 24 21 22 27 25 25 25 27 27 24 21 20 25 32 31 30 30 31 33 33 29 31 32 32 32 29
30 32 36 42 43 37 32 29 24 22 20 18 17 15 15 19 22 21 25 29 29 22 24 29 24 25 26 21 22 25 24 25 26 31 31 30 29 28 28 30 30 29 30
23 27 30 38 40 37 33 30 25 23 22 19 19 16 15 19 22 25 25 27 26 33 25 22 26 27 25 26 23 21 23 26 27 29 32 29 29 26 29 29 29 31 32
26 28 30 33 37 40 37 32 29 27 25 23 23 22 19 19 24 26 28 24 23 27 26 26 25 24 22 24 25 25 26 26 26 29 33 32 29 30 32 29 34 34 35
22 27 31 33 40 42 39 36 34 32 30 28 28 28 22 21 21 22 23 23 25 25 25 26 27 28 30 29 27 29 30 34 36 37 35 32 32 38 32 35 38 40 40
23 25 29 32 36 40 40 38 36 33 32 32 32 30 28 25 24 25 27 28 28 29 28 29 30 31 31 30 30 33 34 37 36 31 32 33 36 39 40 40 45 48 43
29 31 33 33 31 38 37 37 36 36 36 36 37 35 34 32 30 30 29 29 30 31 33 32 33 33 33 32 32 33 29 30 31 35 39 43 44 43 43 43 45 44 44
30 29 31 33 33 34 34 37 37 36 37 37 39 40 38 37 36 35 34 33 31 32 34 34 34 33 30 28 30 34 35 37 41 44 42 43 44 45 46 52 51 50 52
5 15 22 29 31 35 40 38 41 41 39 34 34 37 36 31 32 31 28 30 31 34 37 36 37 33 38 35 38 40 37 37 39 42 44 47 50 51 50 50 50 49 47
14 11 5 8 16 19 15 10 12 25 29 27 37 36 41 33 37 38 35 38 32 32 28 30 30 33 33 32 32 32 34 36 39 39 40 41 41 41 41 41 41 42 42
19 17 17 13 4 5 5 2 8 2 6 8 17 13 22 25 26 15 19 22 29 18 23 23 25 25 27 27 29 31 32 33 35 35 36 36 36 37 38 39 39 39 38
6 9 13 16 16 15 11 10 12 11 12 11 7 6 4 3 8 11 12 13 18 22 21 21 22 24 25 27 27 27 28 29 30 30 31 32 32 33 33 34 34 34 33
9 8 5 2 5 6 5 7 6 7 11 13 12 11 9 9 9 11 13 15 17 18 18 19 21 22 23 24 23 24 25 25 26 27 28 28 28 29 30 31 31 31 31
8 9 8 7 5 3 4 6 7 8 11 12 14 15 15 17 18 20 21 21 19 18 19 20 21 21 22 24 25 25 25 25 26 26 27 28 29 29 30 30 31 31 32
9 8 8 9 8 7 7 8 8 9 9 9 9 9 10 12 13 13 14 16 17 18 20 21 22 23 25 25 24 25 26 26 26 26 27 27 28 28 28 28 29 29 30
13 12 11 11 11 10 10 10 10 11 12 12 12 13 13 15 15 16 16 17 18 19 20 22 22 23 24 24 25 25 26 27 27 27 27 28 27 27 27 27 27 27 27
14 14 14 14 13 14 14 14 14 14 14 14 15 16 17 17 17 17 18 20 20 21 22 23 23 23 24 25 26 26 26 27 28 27 28 28 28 27 27 26 26 27 26
16 16 15 16 17 17 17 17 18 18 17 17 17 18 18 19 20 20 20 21 22 22 23 23 23 24 24 25 26 26 27 27 27 27 27 27 27 26 26 26 25 25 25
17 17 19 19 18 18 18 18 18 18 17 18 19 20 20 20 20 21 22 22 22 23 23 24 24 25 26 26 26 26 26 26 26 26 26 26 26 26 26 25 25 25 25
20 20 19 19 20 21 20 20 20 21 19 20 21 21 21 21 22 22 23 24 24 25 25 25 25 25 25 26 25 26 26 25 26 26 26 25 25 25 26 25 26 27 26
21 23 22 22 21 22 22 22 22 22 22 20 21 22 23 23 23 23 23 23 23 23 24 24 24 24 25 25 25 25 24 25 25 25 25 25 26 25 26 27 25 26 26
17 19 21 21 23 22 21 22 22 22 23 23 22 22 22 22 23 22 23 23 23 24 24 24 24 25 25 25 24 25 25 24 24 25 25 26 26 25 26 26 27 26 26
19 19 19 19 20 21 22 22 23 24 23 22 22 22 23 23 23 23 23 24 24 24 24 24 24 25 25 25 25 24 25 25 26 26 26 26 26 26 26 26 26 26 26
22 21 21 20 20 20 21 21 21 22 23 23 24 24 24 24 24 24 23 24 24 24 24 24 25 24 25 25 26 26 25 25 25 25 26 26 26 26 26 26 26 25 26
23 23 23 22 22 22 22 22 22 22 22 23 23 23 23 24 23 24 23 23 24 24 24 24 24 25 25 24 25 25 25 25 25 25 25 25 25 25 25 25 26 26 26

GFSGL_700_spd_105.txt.gz
Wind_Speed
36 39 36 34 34 37 38 32 32 29 24 21 19 18 17 16 17 14 19 22 20 28 28 36 37 37 35 35 36 39 37 33 30 24 26 29 27 22 20 18 19 22 23
36 30 33 35 35 39 38 34 32 30 25 21 19 18 16 16 18 12 15 19 28 31 32 32 31 28 25 28 29 29 31 29 32 30 28 30 33 27 26 25 27 26 24
27 29 30 39 35 39 35 39 34 31 26 22 20 18 16 15 17 16 14 21 28 27 27 27 29 26 26 22 23 24 27 29 32 35 32 30 30 29 27 27 27 29 29
19 24 26 23 26 33 39 42 35 30 27 24 22 18 16 14 17 20 21 22 26 27 25 25 26 23 28 32 26 27 25 29 30 30 28 27 27 28 30 29 30 29 28
24 25 22 24 33 34 38 39 34 33 30 26 25 21 20 19 19 22 21 26 22 29 27 28 30 26 23 30 29 29 28 27 28 28 29 29 30 28 29 30 29 29 30
24 18 24 27 43 34 38 40 38 36 31 29 30 25 22 21 19 19 25 27 29 27 30 27 28 28 31 29 28 30 34 30 27 27 29 29 29 34 34 33 30 36 33
22 21 25 26 32 38 43 37 42 40 33 30 30 29 26 25 24 22 24 27 29 28 30 29 33 35 33 32 33 34 34 34 33 32 34 37 36 35 34 33 32 38 38
14 26 25 29 32 35 36 36 37 39 35 28 28 30 27 28 27 28 28 29 29 30 30 32 33 29 27 28 30 31 34 36 36 39 41 40 32 33 33 37 40 39 40
12 8 18 30 38 40 35 31 36 35 33 32 31 27 30 32 30 29 28 29 31 31 32 31 30 32 38 41 40 40 42 42 40 38 32 36 40 40 42 45 37 40 47
13 10 9 5 11 29 34 40 33 36 38 38 38 41 38 38 37 38 37 36 38 38 36 38 40 43 44 45 42 36 34 37 39 39 43 49 47 35 39 42 45 44 43
18 14 11 11 7 5 11 12 33 34 38 41 43 44 47 44 45 44 42 45 44 44 39 37 36 40 43 43 45 44 45 47 48 43 37 38 38 39 38 36 36 36 36
13 13 14 15 15 8 9 8 4 7 14 19 18 20 24 26 31 43 39 43 38 36 42 38 36 37 39 26 25 23 26 28 29 32 35 34 33 32 31 32 33 33 32
11 10 8 8 11 13 13 13 6 4 7 10 9 6 1 3 4 3 5 12 15 34 16 30 21 17 15 22 22 23 23 25 26 26 26 26 27 28 29 30 32 31 31
11 10 9 9 8 6 5 4 6 10 9 8 7 7 7 7 5 7 8 6 5 7 10 13 17 17 17 19 20 19 20 21 22 23 24 25 26 27 28 29 30 30 31
12 12 11 10 9 9 8 7 7 8 9 10 11 10 11 12 13 11 11 14 15 14 13 16 18 16 17 19 19 19 19 20 21 22 25 26 27 28 28 29 29 30 30
9 9 11 11 10 9 9 8 7 7 6 6 7 8 9 12 13 14 16 17 18 18 19 19 20 21 23 22 22 21 21 21 22 24 25 26 26 26 27 28 29 29 29
13 12 11 11 11 11 11 11 11 11 11 11 10 10 10 11 10 11 12 12 12 13 13 15 16 16 17 17 19 20 21 22 23 24 25 25 25 25 26 27 28 28 28
16 16 15 15 15 14 13 13 13 12 13 13 13 13 13 13 14 14 14 15 15 15 15 15 16 17 18 19 20 21 21 22 22 23 24 25 26 26 25 26 26 26 27
17 17 17 16 16 16 17 16 16 16 16 16 15 15 15 16 16 16 16 16 16 17 17 18 19 19 20 21 21 22 23 23 23 24 25 25 25 25 24 24 24 24 24
19 18 19 19 19 19 19 18 16 17 18 19 18 17 17 17 18 18 18 18 18 18 20 21 21 21 22 22 21 22 22 22 22 23 24 23 23 23 24 24 24 23 23
22 22 19 19 20 20 19 19 18 18 20 20 21 21 19 19 20 21 20 20 20 19 20 20 21 21 20 20 20 20 21 22 21 22 22 22 23 24 23 23 24 24 23
20 20 20 20 20 18 19 21 20 18 18 19 19 19 19 19 20 20 20 20 20 20 19 20 20 20 20 20 20 21 21 21 22 22 23 23 23 24 25 25 25 25 25
20 20 21 23 22 21 22 21 20 20 19 19 18 19 19 18 18 19 19 20 20 20 20 20 21 21 20 21 22 22 22 22 24 24 25 25 24 26 26 26 25 25 25
21 21 20 22 23 24 24 25 25 23 22 21 21 21 21 20 20 20 20 19 20 20 20 21 22 22 21 22 23 23 23 24 24 24 25 25 25 24 24 25 25 25 25
22 22 22 21 21 22 22 23 24 25 25 24 23 23 23 22 21 21 22 23 22 21 21 22 22 22 22 23 22 23 23 23 23 24 24 23 23 24 23 23 23 23 24
22 22 22 21 21 22 22 22 22 23 24 25 25 25 24 24 24 21 22 23 22 21 21 21 22 20 20 21 22 22 21 22 22 22 22 22 23 22 22 23 23 23 24

GFSGL_700_spd_111.txt.gz
Wind_Speed
47 52 50 48 49 50 51 46 46 42 41 39 38 37 36 36 32 29 27 27 27 23 18 19 28 29 31 38 42 42 44 42 31 24 22 25 30 31 34 32 32 26 24
46 48 52 51 46 45 38 40 40 36 36 34 36 34 36 36 33 30 27 26 25 23 17 18 30 28 34 31 39 44 41 38 29 29 28 26 27 31 25 31 24 25 26
29 26 19 23 29 33 33 31 33 35 35 34 36 33 36 36 33 29 27 26 25 22 18 22 19 27 29 32 32 43 35 30 30 36 32 31 31 31 27 33 33 32 30
14 16 20 21 24 30 28 28 31 32 36 36 37 38 35 36 35 30 29 25 25 22 19 25 23 21 30 23 31 44 33 33 31 28 35 35 31 32 32 33 31 33 35
11 15 18 20 20 24 29 34 33 33 36 38 35 40 36 37 34 32 30 26 24 23 19 20 16 19 24 23 29 33 33 29 28 27 25 29 33 31 39 32 37 39 37
18 20 23 22 21 19 28 33 29 36 41 39 42 34 35 37 35 33 31 27 25 22 21 20 20 26 26 29 26 28 27 29 30 29 35 34 29 27 33 32 35 38 36
9 18 16 20 20 23 23 27 25 32 35 39 31 32 35 38 33 36 33 29 27 28 26 26 26 29 29 25 25 28 28 33 35 38 35 32 31 33 29 33 29 31 32
17 14 8 14 22 24 22 22 25 26 43 41 39 33 39 36 32 36 35 33 28 32 25 32 29 28 28 33 31 33 34 35 35 33 35 36 34 29 28 31 30 33 35
23 20 17 11 9 13 18 21 24 32 40 35 35 31 33 32 33 36 36 36 34 35 32 32 32 31 34 36 35 37 41 38 39 33 31 31 30 33 34 34 36 36 41
18 20 24 21 17 14 8 10 16 26 27 22 33 37 38 42 33 33 34 37 33 34 34 38 30 34 37 35 33 34 35 34 36 33 34 34 34 34 34 35 37 38 44
15 16 16 17 19 19 16 13 11 11 14 16 24 28 30 34 40 40 36 35 39 36 35 34 37 37 36 39 37 42 38 42 40 40 38 40 42 40 42 40 36 36 43
15 15 14 14 13 12 13 16 14 11 11 10 9 9 11 15 20 24 29 35 38 37 40 38 39 43 43 49 43 42 39 44 43 42 44 45 43 44 45 46 48 41 38
13 13 13 12 12 11 11 10 8 7 10 12 9 7 8 7 4 7 11 12 10 15 28 34 32 34 35 32 35 44 46 35 33 40 37 36 35 35 35 39 26 24 25
14 14 14 14 13 13 12 11 10 9 9 9 8 9 9 8 7 6 5 4 4 4 3 4 12 17 17 20 17 15 17 17 19 26 26 24 20 18 18 20 21 21 21
17 16 16 16 16 15 14 14 13 13 11 9 8 8 9 11 12 11 11 9 7 7 6 8 7 8 9 10 12 12 12 14 15 16 15 16 16 18 21 23 24 25 26
18 18 19 20 20 20 19 18 17 16 15 15 14 13 12 11 12 13 14 14 15 16 16 14 14 14 14 14 15 15 15 16 16 17 18 21 22 23 23 24 25 26 26
24 23 21 21 21 22 22 22 22 20 19 18 17 16 16 16 16 15 15 15 15 15 15 16 16 16 18 19 20 21 22 23 23 24 24 24 24 24 23 24 25 24 25
25 26 25 24 23 23 23 23 23 22 22 21 20 19 19 18 18 18 18 18 18 18 17 17 17 17 18 18 19 19 19 19 19 19 20 20 21 22 23 23 23 24 25
25 25 26 26 26 26 25 25 25 24 24 24 23 22 21 21 21 21 21 20 20 19 19 19 19 19 19 19 19 19 19 20 20 20 21 21 22 23 24 24 24 24 25
29 29 29 28 27 26 26 26 26 26 26 26 25 24 24 23 23 23 22 22 22 22 21 21 21 21 21 21 21 21 21 21 21 22 22 22 22 23 24 24 25 26 25
30 30 31 30 29 28 27 26 25 25 26 26 26 25 25 25 24 23 23 23 23 23 22 22 22 22 22 22 22 22 22 22 22 22 22 22 22 22 23 23 24 26 27
32 32 31 32 32 30 29 28 27 26 25 25 25 25 24 25 24 23 23 22 22 22 22 22 22 23 23 23 23 22 22 23 23 22 22 23 23 24 25 26 27 28 29
31 31 31 31 31 31 30 30 29 27 26 25 25 25 24 25 25 24 24 23 23 22 22 23 23 23 23 23 23 24 23 23 23 24 25 25 25 26 26 27 27 27 28
30 30 30 29 29 29 29 29 29 28 27 25 24 25 25 25 25 24 24 25 25 24 24 24 24 25 25 25 25 25 25 25 25 25 25 26 26 26 27 27 27 27 27
29 29 29 30 29 29 28 28 28 28 27 27 25 24 24 24 24 24 24 24 24 24 24 24 24 24 25 25 25 25 25 25 25 25 25 25 25 25 25 25 25 24 23
28 28 28 28 28 29 29 28 27 26 26 26 26 25 24 23 23 24 24 23 23 23 23 23 24 24 24 24 24 24 24 23 23 23 23 23 23 23 23 23 23 23 23

GFSGL_700_spd_114.txt.gz
Wind_Speed
25 27 28 30 32 34 37 38 37 38 39 40 40 43 42 42 42 37 38 37 34 33 31 29 29 25 31 25 24 31 33 36 38 36 38 35 30 41 40 36 34 31 30
36 34 39 40 41 43 45 45 44 46 47 44 45 47 45 44 36 36 38 39 35 33 30 29 24 23 30 28 27 25 31 35 37 39 40 39 29 41 33 36 37 36 36
38 45 45 46 48 46 47 46 40 43 46 47 47 45 42 39 34 38 37 41 37 33 29 28 24 23 24 27 26 27 28 34 36 34 38 35 29 32 46 46 43 45 41
25 27 26 23 19 25 26 30 34 32 35 40 42 40 38 35 38 41 43 42 38 32 28 27 23 18 24 23 25 26 28 29 42 41 35 32 35 31 30 28 33 29 35
12 16 17 20 19 27 19 25 25 29 31 34 37 39 37 37 41 46 39 40 37 33 29 27 22 22 23 20 24 28 24 27 35 36 30 29 40 37 33 30 30 36 31
12 15 16 16 22 17 20 25 24 28 30 33 35 38 39 42 48 39 38 39 36 32 30 28 23 22 26 21 22 25 20 26 37 36 28 28 31 30 34 32 33 35 39
17 10 9 15 16 23 24 22 27 25 31 36 31 40 39 43 43 38 31 37 33 32 34 30 28 23 24 24 20 24 25 24 34 39 30 27 30 30 32 33 29 33 36
23 20 14 9 6 12 23 22 22 23 22 27 27 29 31 35 32 34 27 32 32 33 34 31 29 25 27 28 28 29 30 31 29 29 32 32 31 34 34 28 32 34 33
17 19 22 22 17 12 7 11 15 19 19 23 22 17 33 30 35 36 30 31 32 33 33 33 30 32 33 29 31 34 33 32 32 35 34 32 38 34 39 37 33 31 35
16 18 19 19 20 20 17 14 11 8 9 12 22 23 28 35 33 36 37 32 30 33 34 32 32 34 32 35 36 36 36 38 42 36 34 34 35 29 33 35 34 35 38
15 16 16 16 16 15 16 18 17 15 15 12 10 10 12 21 25 31 28 34 34 38 41 40 38 39 38 39 36 37 38 41 36 40 37 37 36 39 36 39 43 42 42
16 16 15 14 14 14 14 13 11 11 12 14 13 12 9 7 9 14 17 22 24 31 33 34 37 39 43 42 41 39 37 41 47 43 42 43 43 41 44 45 47 47 44
16 16 16 16 16 15 15 14 13 13 13 10 9 7 7 8 9 9 10 8 6 7 12 16 18 22 27 39 43 40 40 41 40 39 40 44 43 46 44 46 42 44 43
18 18 18 18 17 16 16 15 15 15 14 13 13 12 12 11 8 5 5 7 8 7 6 5 6 9 12 14 14 15 19 23 26 27 29 31 30 30 31 33 32 29 28
20 20 20 20 20 20 20 19 18 17 17 16 16 15 15 14 13 13 13 12 11 10 9 9 8 8 7 10 10 11 14 15 16 17 19 20 22 23 23 24 21 19 16
21 21 21 22 22 22 22 22 21 21 20 19 19 19 18 18 18 16 15 15 16 17 17 17 16 15 15 13 12 11 12 12 13 14 15 16 17 18 18 19 21 22 22
22 23 23 23 23 23 23 23 23 23 23 22 21 21 20 20 21 21 20 19 18 17 16 17 18 18 18 18 19 19 19 18 18 18 18 19 19 20 22 23 23 23 23
26 26 27 27 27 27 26 26 25 24 24 25 25 24 23 22 22 22 22 22 21 20 19 18 17 17 17 18 18 17 17 18 18 18 19 19 19 19 19 19 20 20 21
30 31 31 31 30 30 30 29 28 27 26 26 26 26 26 25 24 24 23 23 23 22 22 21 20 19 18 17 18 18 19 18 19 19 19 19 20 20 20 21 21 22 22
33 33 33 33 33 33 32 31 31 30 29 28 27 27 27 27 26 26 25 25 24 24 24 23 23 22 22 21 20 20 20 20 20 20 20 21 22 22 22 22 23 23 22
36 36 35 35 34 34 33 33 32 31 31 30 28 27 27 27 27 26 26 25 25 25 24 24 24 23 23 22 22 21 21 21 21 21 21 21 22 22 22 22 22 22 22
35 34 34 33 33 33 33 32 31 30 29 28 28 28 28 27 26 26 25 24 24 24 23 23 23 23 22 22 21 21 21 21 21 21 21 21 21 22 22 22 22 22 22
33 32 32 32 32 31 30 30 29 29 28 27 26 26 26 26 26 26 25 24 23 23 23 23 22 22 22 22 21 21 21 21 21 21 22 22 22 22 22 23 23 24 25
32 32 32 32 31 31 30 29 28 28 27 27 26 25 25 25 25 25 24 24 24 24 23 23 23 23 23 22 22 22 22 22 22 22 22 22 23 23 24 24 25 25 25
31 31 30 30 30 29 29 28 27 26 26 27 26 25 25 24 23 24 24 23 23 23 24 24 24 24 24 24 23 23 23 23 23 23 24 24 24 24 24 24 23 23 23
28 28 28 27 27 27 27 28 27 27 25 24 25 25 24 23 23 22 22 22 23 23 23 24 23 23 23 23 22 22 22 23 22 23 23 23 23 22 22 22 21 21 21

GFSGL_700_spd_117.txt.gz
Wind_Speed
25 27 27 27 32 33 36 40 42 39 38 40 41 40 44 44 42 42 40 38 39 38 37 37 35 34 32 30 29 29 29 32 34 32 37 32 31 41 32 42 38 37 37
20 21 20 20 22 23 26 30 33 36 39 41 43 44 44 47 46 46 43 44 41 37 36 37 35 34 32 29 28 28 30 26 30 28 27 31 35 39 38 33 45 39 38
27 28 31 32 32 34 33 34 36 38 42 45 47 47 48 47 49 49 46 44 41 38 36 39 37 34 33 28 29 31 29 32 28 27 30 32 27 37 37 37 42 49 45
24 31 33 35 39 41 43 44 42 43 44 46 50 50 51 49 52 52 48 44 39 41 41 40 38 35 33 28 26 23 25 28 30 24 31 35 36 31 39 39 42 48 46
18 16 14 16 20 25 27 32 26 28 32 34 37 41 42 46 50 50 46 42 38 46 44 42 39 35 32 28 28 25 23 24 23 27 31 37 40 39 40 33 33 42 38
3 9 12 14 13 16 21 20 28 26 24 35 35 38 40 40 41 41 41 42 37 40 42 41 38 36 32 29 29 27 27 22 27 26 28 26 39 38 32 36 34 37 40
17 13 6 11 18 21 19 21 23 23 28 25 32 34 37 39 38 40 42 41 48 33 42 39 37 36 33 32 30 32 29 25 26 25 26 32 36 29 28 35 41 40 39
17 18 16 11 6 3 9 15 20 24 25 27 30 29 37 39 38 31 42 40 36 37 42 44 35 36 32 34 33 30 28 25 25 26 26 28 38 31 28 30 32 36 37
15 15 15 16 17 15 11 6 9 14 15 18 20 23 26 31 30 35 30 26 33 31 37 33 38 38 33 37 35 31 30 30 29 29 29 32 30 33 35 34 38 41 43
12 13 14 14 13 12 12 14 13 10 8 7 8 13 18 23 28 28 35 38 34 37 39 38 37 42 37 32 35 39 36 36 35 39 34 37 38 37 38 35 37 40 35
14 14 14 14 14 14 13 12 10 10 11 11 11 10 9 10 12 14 18 21 30 38 37 35 34 34 38 33 38 37 41 38 38 39 39 40 44 41 34 35 40 41 38
12 13 13 13 14 15 15 15 15 14 13 12 11 11 12 13 12 11 10 10 11 15 20 29 33 35 39 40 43 39 43 44 42 45 43 46 42 45 40 41 44 40 42
15 15 15 15 14 14 14 14 14 15 15 15 15 14 13 13 13 13 12 10 10 9 9 11 14 18 23 27 34 42 45 46 47 45 48 45 43 45 42 42 50 48 44
17 17 18 18 18 18 18 18 17 16 16 15 15 15 14 14 14 14 15 14 12 10 9 9 8 9 11 13 14 17 19 20 25 27 27 30 29 30 39 42 42 41 48
18 18 19 18 18 18 19 19 20 20 20 19 18 18 18 17 16 15 15 15 15 17 17 15 13 11 10 9 10 11 12 13 14 15 16 17 19 19 20 22 24 25 26
22 22 22 22 22 23 22 21 21 21 20 21 21 21 19 19 20 20 19 18 17 17 17 17 16 16 16 16 14 12 13 12 12 13 14 15 15 16 16 16 17 18 19
24 25 26 26 26 26 27 26 27 25 24 23 23 23 23 23 21 20 21 21 20 18 18 18 18 18 17 17 18 19 19 19 19 18 18 18 18 18 18 17 17 18 19
26 27 28 28 28 29 29 29 29 29 28 28 27 26 25 25 24 23 22 22 22 22 21 20 19 18 19 19 18 18 18 18 19 20 20 20 21 21 21 21 21 20 20
30 31 31 32 32 32 32 31 31 30 30 29 29 28 27 26 26 25 25 24 23 23 23 23 22 21 20 20 20 20 20 19 19 19 19 20 19 19 19 19 20 20 19
34 34 35 35 35 34 34 33 33 32 31 31 30 29 28 28 27 26 25 25 24 24 23 23 23 23 22 21 21 21 21 21 21 21 22 21 21 21 20 20 20 20 20
34 34 34 34 34 34 33 32 31 30 30 29 28 28 27 26 26 25 25 25 25 24 23 22 22 22 23 22 21 21 20 20 20 21 21 21 21 21 21 22 21 21 21
34 34 33 33 33 33 33 32 31 30 29 27 26 25 24 24 23 23 23 23 23 22 22 22 21 20 20 20 20 20 20 20 20 20 20 20 20 20 20 20 20 19 19
33 33 33 33 32 32 32 31 30 29 28 27 25 24 24 23 22 21 22 22 21 21 20 20 20 20 20 19 19 19 19 19 19 19 19 19 19 19 19 20 20 20 20
31 30 30 30 30 30 29 29 29 28 27 26 25 24 23 22 21 20 20 21 21 21 20 20 20 20 20 20 20 19 19 20 20 20 20 20 20 20 20 20 20 21 21
30 29 29 28 28 28 28 27 26 26 25 25 24 24 23 22 21 20 20 20 21 21 21 21 21 21 20 20 20 20 19 19 19 20 20 20 20 20 20 20 20 20 20
30 29 28 27 27 26 26 26 25 25 24 23 22 22 21 21 20 20 19 19 20 20 20 20 20 20 20 19 19 19 19 20 19 19 20 20 19 19 19 19 19 19 18

GFSGL_700_spd_120.txt.gz
Wind_Speed
19 20 22 26 31 37 39 36 37 39 41 39 38 39 41 40 42 42 39 42 40 35 39 38 37 38 36 37 36 35 34 34 36 33 37 34 33 36 31 36 36 39 46
23 27 29 32 33 27 33 36 38 39 38 38 37 38 38 42 40 43 43 42 44 46 49 44 42 41 40 38 37 36 35 34 35 33 33 28 26 31 30 36 38 40 38
21 24 25 24 24 21 22 23 26 29 33 38 44 45 48 49 44 44 49 47 41 52 51 49 45 45 43 40 37 36 36 34 34 33 34 32 31 32 27 33 38 40 41
11 15 18 21 22 24 27 29 29 31 32 35 38 43 47 49 51 53 54 53 53 55 53 50 49 48 47 44 37 40 36 35 33 34 39 32 28 30 30 28 36 44 45
18 18 19 22 24 28 30 31 33 32 34 36 37 39 43 48 51 53 50 51 51 54 52 50 50 49 46 39 39 43 38 34 35 33 34 33 28 28 32 35 34 43 46
3 3 11 18 21 19 21 22 22 23 27 27 29 31 34 34 34 31 31 39 43 46 48 49 41 47 40 37 42 43 38 35 35 32 31 30 30 27 32 32 37 38 41
16 13 9 3 12 19 17 14 19 20 23 26 27 31 32 36 34 36 37 39 40 42 43 44 47 43 42 37 39 40 38 36 34 34 32 29 30 27 26 30 37 41 37
14 14 15 13 10 5 6 12 17 19 19 22 27 32 34 31 35 36 39 40 42 40 43 41 40 44 46 51 46 39 42 40 37 37 35 32 28 27 29 34 35 31 32
12 12 12 12 12 12 12 11 9 7 8 12 15 19 25 28 27 31 32 34 40 40 43 41 41 38 39 40 44 44 36 39 38 37 37 33 32 28 28 36 36 33 32
12 13 13 13 12 11 10 9 9 9 10 11 11 10 10 13 16 20 24 27 26 30 35 38 39 43 46 43 44 38 37 38 37 34 32 36 35 30 31 37 38 42 39
11 11 11 11 12 12 13 13 12 12 13 13 13 13 13 13 12 11 11 14 18 22 26 35 37 42 44 42 41 38 42 44 42 38 38 39 39 37 40 40 39 43 47
12 12 12 12 13 13 14 15 15 15 15 15 16 15 14 14 15 14 14 13 11 11 13 15 16 21 33 40 41 43 40 39 42 42 48 45 48 49 43 47 47 51 48
15 15 15 14 14 14 14 14 15 16 16 17 17 17 16 16 16 15 15 14 14 14 12 11 12 13 14 16 18 27 35 42 44 49 43 46 48 45 50 51 51 53 53
14 14 15 16 17 18 18 17 17 17 18 19 20 20 20 19 19 18 17 16 16 15 15 15 14 13 13 13 13 15 16 17 17 19 26 31 32 36 39 37 40 45 47
18 18 19 19 19 19 19 20 20 20 20 20 20 20 20 21 22 22 20 20 19 18 18 17 16 16 16 15 14 13 13 14 13 13 14 14 16 18 20 22 23 24 21
22 22 22 22 23 24 25 26 24 24 24 24 25 25 25 24 23 23 23 23 23 22 20 20 19 18 16 17 17 17 16 15 14 14 13 13 13 14 14 16 17 18 19
23 24 25 26 27 27 27 28 29 30 30 29 28 28 28 28 28 28 27 25 24 24 24 23 22 21 20 20 19 19 19 20 20 20 19 18 17 16 15 16 17 17 18
26 27 28 28 29 29 30 31 32 32 32 32 32 31 30 29 29 28 28 29 28 26 25 25 24 23 23 22 22 21 21 21 21 20 21 21 22 22 22 22 22 22 22
30 31 32 33 33 33 33 33 33 33 33 33 33 33 32 31 30 29 28 28 28 27 28 27 27 26 25 24 24 23 23 22 22 22 21 21 21 21 20 19 19 19 19
33 33 34 34 35 34 34 34 34 33 33 33 32 31 31 31 30 30 29 28 28 27 27 27 27 27 27 26 25 25 24 24 24 23 23 23 22 21 21 20 20 20 19
36 36 36 36 37 36 36 35 34 34 33 32 31 29 29 28 28 27 27 27 26 26 26 25 25 24 25 25 25 25 24 24 24 24 23 22 22 21 21 20 20 20 20
35 35 35 35 35 36 35 35 34 33 33 32 30 29 27 26 25 25 24 24 24 24 24 24 24 23 22 22 23 23 23 22 22 22 22 22 22 21 21 21 21 21 20
34 33 32 32 32 32 32 32 32 32 31 31 29 28 27 25 24 24 23 23 23 23 23 22 22 22 22 21 21 21 21 21 21 22 22 22 22 21 21 21 21 21 21
33 32 32 32 32 31 31 30 30 30 29 29 28 28 27 25 24 23 22 22 22 22 22 22 22 22 22 22 21 22 22 22 22 22 22 22 22 22 21 21 21 21 21
33 32 31 31 30 29 29 28 28 28 28 27 26 26 26 24 23 22 22 22 22 22 21 21 21 21 21 21 22 22 22 22 22 22 22 22 22 21 21 21 21 21 21
31 31 30 30 29 29 28 27 27 27 27 26 26 25 25 23 22 21 21 21 21 21 21 21 20 20 20 20 20 20 21 21 21 21 21 21 21 21 21 21 21 20 20

GFSGL_700_spd_123.txt.gz
Wind_Speed
21 20 32 28 34 36 32 38 33 40 42 41 38 34 37 41 42 42 42 42 46 41 46 39 36 30 35 37 38 38 40 38 38 34 34 34 35 31 34 37 38 38 40
15 13 15 17 22 12 31 33 42 44 43 38 35 37 39 38 40 43 42 41 43 41 42 44 29 35 45 36 41 45 43 42 42 46 36 35 35 31 30 30 33 38 38
16 15 14 18 18 15 13 18 23 27 30 32 36 38 37 35 37 40 41 42 42 46 47 40 36 36 40 42 49 48 46 46 46 50 38 37 38 34 33 31 33 31 35
4 4 7 7 7 13 18 17 21 23 25 26 28 34 37 40 42 44 48 51 54 49 47 50 50 52 53 53 51 51 49 48 45 46 38 42 43 33 32 35 33 37 34
1 7 7 11 10 12 18 20 22 24 25 26 28 29 30 35 41 46 48 50 52 55 58 57 58 58 57 56 53 50 47 56 45 46 39 45 44 35 34 30 28 32 34
8 2 9 12 13 15 19 22 23 23 24 25 28 31 34 36 36 39 41 43 47 51 49 47 49 47 48 51 48 49 47 50 47 40 41 46 42 38 30 34 33 35 36
20 19 15 5 4 8 9 11 10 12 18 18 22 24 27 30 32 32 31 32 34 39 40 38 39 43 47 47 47 45 47 43 47 42 44 43 39 38 32 35 34 33 33
21 19 15 16 15 14 13 8 7 11 15 20 21 22 25 28 29 32 35 36 36 40 36 39 40 44 43 44 42 45 44 44 42 45 43 42 43 38 39 35 31 31 33
16 15 14 15 15 15 13 11 10 9 9 8 7 8 11 15 19 21 26 29 30 33 37 39 44 42 41 38 45 45 43 47 46 44 54 44 45 43 40 36 37 34 35
16 15 14 14 13 12 11 10 11 11 11 11 10 10 10 10 10 11 12 15 20 24 28 32 35 34 38 41 47 49 51 51 43 47 44 46 44 46 40 38 36 37 35
11 11 12 12 12 12 13 13 13 13 13 13 13 13 13 13 13 14 15 15 14 15 16 19 22 24 27 35 38 42 43 46 42 40 50 48 41 46 48 44 42 39 41
13 12 13 14 14 15 16 16 17 17 16 17 17 17 17 17 17 17 16 16 16 16 16 16 16 16 18 19 19 22 32 39 42 46 51 46 43 48 43 47 42 46 47
15 15 15 15 15 16 16 17 18 19 19 20 20 20 21 21 21 20 20 20 20 20 19 19 19 19 18 17 17 17 17 17 18 25 36 40 47 43 49 50 47 47 52
18 18 18 18 19 20 21 21 21 22 23 24 24 25 24 24 24 23 23 23 23 23 22 22 21 21 20 20 19 18 17 17 16 15 16 17 21 26 31 36 38 38 42
21 22 22 23 23 24 24 23 24 25 25 25 26 27 26 27 27 28 27 26 26 26 25 25 24 23 22 21 21 20 19 18 17 15 14 14 14 16 17 17 19 20 21
23 24 24 24 25 26 28 30 29 29 31 31 30 30 30 30 30 30 30 31 31 31 29 28 27 26 25 24 23 22 22 21 20 19 17 15 14 14 14 15 15 16 16
26 27 28 29 30 30 31 32 32 34 35 33 34 35 35 35 34 34 33 33 33 33 32 31 31 30 28 26 26 25 24 24 23 23 21 20 19 18 17 16 15 15 16
29 30 32 33 34 35 36 37 37 38 37 37 38 37 38 38 38 37 37 35 34 33 33 33 32 31 31 30 29 27 26 25 25 24 24 24 23 23 23 23 22 21 21
33 34 35 36 37 38 39 39 40 40 40 40 39 38 37 38 38 37 35 35 35 34 33 32 32 32 31 30 30 30 29 28 27 26 25 24 24 24 23 22 22 23 24
35 36 37 38 39 40 39 39 39 39 39 39 40 37 35 35 35 35 34 33 33 33 32 33 32 31 31 30 30 29 29 28 28 28 27 26 25 25 24 23 22 22 22
38 38 39 39 40 39 39 38 38 38 37 36 36 35 32 32 32 32 31 30 31 31 31 31 30 30 29 29 29 29 28 27 27 27 26 26 26 25 25 24 24 23 22
39 39 38 38 37 37 36 36 36 35 34 35 34 34 31 29 28 28 29 28 29 29 28 28 28 28 27 27 26 26 26 26 25 25 24 24 24 24 24 23 22 22 22
39 37 36 35 35 35 34 34 33 33 33 32 32 33 32 31 29 28 27 27 27 27 27 27 26 26 26 26 25 25 24 24 23 23 23 23 23 23 23 23 22 22 21
37 36 35 34 34 34 33 33 32 32 31 31 30 30 30 30 29 28 27 26 26 26 26 27 26 26 25 25 24 24 24 23 23 23 23 23 23 23 23 23 22 22 22
37 36 35 34 34 33 33 32 32 31 31 30 30 30 29 29 28 27 26 26 25 25 25 25 25 25 25 25 24 24 23 23 23 23 23 23 23 23 23 23 23 22 22
36 36 36 36 35 35 34 34 33 32 31 30 30 30 29 29 28 27 26 25 25 24 24 24 23 23 24 23 23 23 22 22 22 22 22 22 22 22 21 21 21 21 21

GFSGL_700_spd_126.txt.gz
Wind_Speed
21 25 35 37 43 35 40 36 55 37 41 41 34 28 27 30 27 30 37 38 39 39 40 43 40 40 41 36 35 32 29 30 35 28 32 34 41 38 36 32 30 33 35
19 10 12 18 20 23 31 33 43 40 47 49 40 29 22 25 33 36 35 41 43 43 41 38 40 34 32 32 35 29 41 47 39 39 36 38 37 42 44 37 30 32 35
20 15 11 16 12 9 13 10 16 25 43 51 51 32 27 33 37 37 38 44 43 44 44 41 39 36 37 38 35 34 31 28 35 40 46 44 44 43 41 40 33 33 38
10 14 12 12 12 14 12 16 12 17 20 24 30 32 37 39 38 44 41 39 40 42 43 43 43 44 43 44 44 43 43 45 47 49 44 50 47 44 38 43 39 32 34
17 16 11 5 11 16 13 8 9 15 18 22 25 27 30 33 37 36 37 39 40 42 44 46 48 49 49 50 51 51 52 52 53 53 41 48 35 37 39 39 40 35 37
30 28 25 20 13 15 12 10 10 11 12 15 15 21 25 24 24 29 30 33 37 41 45 47 49 52 53 52 51 49 44 48 42 36 47 45 46 41 44 40 45 36 37
28 28 27 27 24 22 17 9 3 2 2 9 13 14 17 21 22 25 30 31 32 34 37 38 40 41 42 41 39 47 40 42 49 50 47 48 45 43 44 48 44 37 36
24 23 22 21 20 19 16 16 16 13 7 3 6 13 18 21 18 25 27 28 30 34 36 38 42 40 40 42 42 39 40 40 45 44 46 47 46 42 38 39 35 38 37
19 19 19 20 19 17 15 15 14 13 12 9 7 6 6 6 7 7 9 13 18 22 27 30 32 34 35 43 38 42 46 46 48 46 49 44 46 46 45 47 41 42 45
16 17 18 17 15 15 14 14 14 13 13 12 12 11 12 12 12 12 13 14 14 14 14 14 17 21 24 30 36 39 43 44 50 42 46 47 50 47 50 53 53 44 48
19 18 18 18 19 19 18 17 16 15 14 14 14 14 14 15 16 16 17 17 17 17 17 17 17 16 16 17 20 24 28 33 41 44 46 55 57 51 53 48 48 49 46
20 21 21 21 20 20 21 22 21 21 21 20 20 20 19 19 19 19 20 20 20 20 20 20 20 20 20 20 19 18 17 21 21 23 28 36 39 43 43 46 50 49 54
20 21 21 22 23 23 23 22 23 23 23 24 24 24 25 25 25 25 25 24 24 25 26 26 25 24 23 23 22 21 20 19 18 19 20 21 22 26 32 37 43 42 50
21 21 22 22 23 23 25 25 25 26 26 26 26 26 27 28 28 28 28 29 29 29 28 28 29 28 27 26 25 24 23 21 20 19 18 18 19 18 20 21 21 25 29
24 25 25 26 27 29 29 29 29 30 31 31 32 32 31 30 30 31 31 31 31 31 31 30 30 30 31 30 29 27 26 25 23 22 21 20 18 17 18 17 19 17 16
24 26 27 28 29 30 31 33 34 34 33 34 34 35 36 36 36 36 35 34 34 34 34 34 33 33 32 31 30 29 28 27 26 25 24 23 22 20 19 17 17 17 16
28 29 31 32 33 34 35 36 37 38 41 42 40 36 37 40 39 38 39 39 39 36 35 34 33 33 34 33 32 31 29 29 29 27 26 26 24 24 23 21 20 19 17
31 32 33 34 36 37 38 39 41 42 42 41 43 45 37 41 40 39 37 38 38 37 37 37 34 32 32 33 32 32 31 30 30 29 28 27 27 25 24 24 24 23 22
33 34 36 38 40 41 42 42 42 43 42 42 42 42 38 36 40 40 36 34 34 34 33 35 34 32 32 31 31 31 32 31 30 29 28 27 28 27 26 25 24 24 23
34 36 37 39 40 41 41 40 39 38 38 38 38 39 36 33 33 34 35 31 30 31 30 30 31 29 29 29 30 29 30 29 29 29 28 27 27 27 26 25 25 24 23
37 38 40 40 40 39 38 37 37 37 36 35 35 36 34 32 31 31 32 30 29 29 29 29 29 28 26 26 26 26 26 26 26 27 26 27 27 26 25 24 24 24 24
39 38 38 38 37 35 35 34 34 34 34 34 33 33 34 33 31 29 29 29 28 28 28 29 29 28 26 25 24 23 23 23 23 23 23 24 24 24 25 24 23 23 21
38 37 35 34 34 34 34 34 34 33 33 33 32 32 32 33 32 30 29 29 27 27 27 27 27 28 27 25 23 22 22 21 20 21 21 21 21 22 22 22 22 21 21
36 35 35 35 35 35 35 35 35 34 34 33 33 32 31 31 31 31 30 30 27 26 27 25 26 24 25 25 24 22 21 21 20 20 21 21 20 21 20 20 20 20 20
36 36 37 38 38 38 38 37 37 36 35 34 33 32 31 31 30 30 29 30 28 26 26 26 24 25 24 23 23 22 21 20 20 20 21 20 21 20 20 20 21 19 19
37 38 39 39 39 39 39 38 37 37 37 37 35 33 31 31 31 29 29 29 28 26 26 25 24 22 23 22 20 21 20 19 19 19 19 19 19 19 20 19 20 19 19

GFSGL_700_spd_129.txt.gz
Wind_Speed
14 18 15 14 12 18 26 36 46 50 44 24 38 48 49 45 46 45 43 39 37 34 33 31 30 34 36 37 49 35 36 37 32 26 31 26 29 30 27 26 26 29 31
15 15 15 11 8 20 24 42 26 25 41 26 24 31 38 39 38 30 31 34 28 32 33 33 32 35 38 39 38 38 34 29 32 29 26 39 40 33 35 35 33 34 35
34 29 36 16 10 14 24 18 34 28 32 44 33 34 40 6 35 30 17 16 18 23 28 34 36 40 40 38 40 39 36 34 32 33 36 32 33 39 38 44 35 39 37
22 30 28 27 17 13 8 9 31 9 24 37 39 35 43 39 27 29 28 22 24 27 35 37 38 39 41 41 41 40 38 41 41 43 44 44 47 48 46 43 40 30 33
28 22 23 26 24 19 15 19 13 7 10 24 22 36 41 48 34 27 29 26 30 36 41 36 36 37 40 43 43 43 46 46 45 48 49 45 49 51 50 40 33 37 36
33 34 30 24 17 19 14 10 8 9 8 8 13 13 10 18 25 29 35 31 29 27 36 43 38 36 42 44 46 43 45 47 48 49 40 51 44 44 34 34 37 42 43
29 30 31 31 32 30 21 8 7 7 4 1 1 3 4 8 17 18 17 19 24 30 33 34 35 35 37 40 43 42 44 43 44 41 46 43 48 44 40 44 43 41 41
26 27 28 30 29 27 23 21 17 16 15 16 10 5 3 7 12 15 18 21 26 28 29 31 32 36 39 39 40 42 44 43 44 43 45 50 53 50 51 46 43 43 41
24 25 26 26 24 21 20 20 18 17 16 15 13 11 10 9 7 7 8 9 10 11 13 16 19 23 28 31 35 39 43 48 49 45 47 44 45 46 46 47 44 46 46
23 25 24 23 21 19 18 16 15 14 13 12 11 10 11 11 10 10 11 12 13 14 14 14 14 16 17 17 18 20 26 29 35 40 44 48 50 50 54 53 50 49 52
22 21 20 20 19 18 18 16 15 13 12 12 13 12 12 12 13 14 15 16 17 18 18 18 18 19 19 20 20 20 21 20 21 25 29 35 41 45 48 56 52 51 51
21 22 21 19 19 20 19 19 18 18 18 18 18 17 18 18 18 19 20 20 21 22 23 23 23 23 23 24 24 24 24 23 24 23 22 23 25 27 29 33 40 44 48
21 20 21 21 20 19 18 18 18 19 20 20 20 21 22 23 24 25 25 25 25 26 26 26 27 27 27 27 26 26 26 26 26 25 25 25 23 23 23 22 22 23 29
20 21 21 21 21 21 20 19 19 19 20 21 21 22 22 23 25 26 28 29 30 30 30 29 30 30 30 30 31 30 29 28 28 27 27 27 26 25 22 21 20 21 20
20 21 21 22 23 26 27 27 28 28 26 24 25 27 28 27 28 29 29 30 30 31 33 33 33 34 33 32 32 33 33 32 30 29 28 28 28 27 25 23 21 20 19
24 26 28 30 31 33 34 36 39 39 40 40 36 34 34 35 35 34 36 37 36 36 36 35 35 35 35 34 34 33 33 33 32 31 30 30 29 28 27 26 24 23 21
24 26 28 30 31 33 35 37 38 40 42 45 47 43 41 42 42 38 33 37 38 38 37 35 35 35 35 34 35 35 33 33 33 31 31 31 30 29 28 28 27 27 25
28 29 31 32 33 34 36 37 38 38 38 38 41 40 38 38 41 39 32 31 31 33 35 34 33 32 33 33 32 33 33 32 31 30 30 31 30 30 29 28 28 27 26
32 32 34 36 38 39 39 39 38 36 36 35 36 36 34 31 31 33 33 31 31 30 30 30 30 28 28 29 30 30 30 28 29 29 28 29 30 29 28 28 28 26 24
34 34 36 37 38 37 36 35 34 33 34 34 35 36 36 34 32 32 31 29 27 27 28 28 28 26 25 26 26 26 25 24 25 26 26 27 27 27 26 26 26 26 24
35 35 36 37 36 35 34 33 33 34 34 35 36 37 38 38 37 34 32 31 29 28 26 27 27 27 26 24 22 23 22 22 22 22 23 23 23 23 24 23 23 23 22
38 37 35 34 33 32 33 34 34 35 36 36 36 36 36 36 37 37 34 31 29 28 28 26 26 26 26 23 21 22 21 20 20 20 20 20 20 20 20 19 19 20 21
36 36 34 32 32 33 34 35 36 36 36 36 36 35 34 34 34 34 34 33 30 27 26 27 25 24 26 24 21 19 19 18 19 19 19 18 18 18 17 17 17 16 17
35 34 34 34 36 37 37 37 37 37 37 36 35 34 33 32 32 32 32 31 31 28 27 27 25 24 23 23 22 19 18 17 17 18 18 18 18 18 17 16 15 16 17
37 36 37 37 38 38 39 39 38 38 38 38 37 35 35 33 31 30 29 30 30 29 27 26 25 24 22 20 20 19 17 17 17 17 17 17 17 17 17 17 17 16 16
35 37 38 39 39 39 39 39 39 37 37 37 37 35 34 34 33 31 29 29 29 29 27 27 26 24 22 19 19 18 17 16 16 16 16 16 16 16 16 18 17 16 16

GFSGL_700_spd_132.txt.gz
Wind_Speed
26 19 6 9 10 11 17 22 26 25 30 44 48 50 41 44 49 53 50 48 48 44 43 42 41 39 38 39 41 37 33 38 35 38 30 24 23 31 31 28 24 23 26
27 13 11 11 15 12 9 14 15 19 23 37 35 40 26 41 36 57 51 48 51 51 50 47 46 43 41 39 32 30 35 43 40 31 27 18 19 19 21 31 34 29 31
29 14 8 14 19 23 27 14 13 13 14 21 27 33 6 14 52 45 54 48 55 56 50 47 36 40 39 37 37 38 37 36 38 36 32 28 26 29 32 31 31 36 39
34 33 29 29 34 30 28 16 10 11 9 9 16 12 33 20 2 23 37 38 48 47 46 51 44 44 41 35 38 38 40 41 38 40 36 35 37 36 37 39 40 44 43
35 36 34 32 35 38 28 21 19 14 11 5 10 15 18 34 35 20 15 13 15 16 20 31 25 22 26 29 37 36 35 40 38 38 40 42 44 42 41 40 40 41 41
29 32 36 40 38 37 34 28 20 19 14 10 8 4 12 24 32 32 32 27 26 23 20 22 29 28 30 31 31 33 34 39 41 45 45 48 43 45 47 43 44 44 38
25 26 28 30 28 32 33 29 26 23 15 8 9 6 6 7 4 4 3 7 10 13 13 17 23 30 34 39 31 38 38 40 43 45 48 48 47 48 45 43 49 35 32
22 21 23 25 24 25 25 26 27 28 27 24 20 18 16 16 16 14 13 12 11 11 13 16 17 21 28 33 35 38 42 43 43 44 45 46 48 52 46 47 47 50 53
19 20 21 22 21 23 24 25 26 23 21 19 17 16 13 10 9 9 7 6 7 8 8 8 9 11 13 17 19 20 23 27 33 38 43 46 46 51 48 49 49 50 49
17 20 21 20 20 21 22 21 21 19 16 15 13 11 11 11 11 11 12 11 11 13 13 13 13 15 15 16 17 19 20 21 21 21 23 29 34 43 44 51 50 53 54
16 17 18 19 21 23 23 21 19 18 18 17 16 15 14 14 14 16 17 19 19 19 19 20 21 21 21 21 22 22 23 24 24 24 23 24 24 25 28 33 37 43 47
15 16 17 18 19 19 20 21 21 20 19 19 18 17 19 20 20 20 21 22 24 24 25 25 25 25 26 27 28 29 29 30 30 30 28 27 27 26 26 26 26 27 30
18 19 20 21 20 20 20 21 21 23 23 21 20 21 21 22 24 25 26 27 29 30 32 33 33 33 32 33 32 31 32 32 33 33 33 32 31 30 29 28 28 28 27
18 19 19 20 21 21 22 22 21 20 21 22 24 24 25 26 25 26 28 29 30 32 35 37 38 38 38 37 37 38 37 36 36 35 35 35 35 34 33 32 30 29 28
18 19 22 24 25 25 25 26 26 26 27 28 29 31 31 31 31 33 34 32 32 33 35 36 39 40 42 43 43 42 41 40 40 39 39 38 37 35 35 35 34 32 30
23 24 23 24 25 28 30 33 34 35 36 35 34 34 33 34 34 34 35 37 38 38 37 37 37 40 42 43 43 43 43 43 43 41 40 39 39 38 37 37 35 34 32
25 28 31 34 35 35 36 36 35 37 38 38 38 37 37 37 34 33 33 35 36 36 37 37 38 38 38 40 42 44 43 43 43 42 42 41 39 39 38 37 36 35 34
28 29 30 31 33 35 37 37 37 36 36 37 37 37 36 36 34 31 31 32 33 34 35 36 36 35 36 37 37 37 38 40 41 41 40 40 38 37 36 36 35 34 33
28 31 33 34 35 35 36 36 36 36 36 37 36 37 36 36 36 35 32 30 29 29 30 31 31 32 33 33 34 34 34 35 36 35 37 36 35 34 34 33 32 31 30
32 33 35 36 36 36 37 37 37 38 39 40 41 41 41 40 39 38 35 34 32 30 29 30 30 30 30 29 29 30 31 32 32 32 32 31 31 31 29 28 29 28 27
33 35 35 36 36 35 35 36 36 37 37 37 38 39 41 41 41 41 41 38 36 33 30 29 30 29 29 28 27 27 27 27 27 27 27 26 25 26 25 24 24 25 24
35 36 35 35 35 34 34 35 36 36 37 37 38 38 39 40 40 40 40 39 38 35 33 30 29 29 28 27 26 25 25 25 25 25 24 23 23 22 21 20 20 21 21
35 34 34 34 35 35 34 35 36 37 37 38 38 39 37 37 37 37 37 36 35 33 32 30 28 28 27 28 27 24 23 22 22 23 23 22 21 21 19 18 17 17 18
36 36 36 36 35 35 36 37 38 37 38 38 39 39 37 36 36 36 36 35 34 32 30 29 28 27 25 26 27 25 22 21 21 21 22 21 21 21 19 18 17 16 16
37 36 36 36 37 37 38 38 39 39 38 38 38 38 36 36 35 35 35 34 34 32 30 28 27 26 24 24 24 24 22 21 20 19 19 20 21 20 20 19 18 18 18
36 37 37 38 38 39 40 39 38 38 39 39 39 38 38 38 36 35 34 35 34 32 31 29 27 25 24 23 22 22 21 19 18 17 17 18 19 19 19 18 17 17 17